Wetterdaten: Donnerstag, 24.11.2022
Datum Zeit Temp. Aussen Temp. o. S. Temp +5cm Feuchte Auss Luftdruck Regen Sonnenschein Regendauer Solar Windben Empfang
24.11.2022 00:00 7,8 C 7,2 C 3,9 C 97 % 1004,1 hPa 0,0 l/m 0 min 0 min 0 W/m 22,5 km/h (4 Bft) 95,74 %
24.11.2022 00:02 7,8 C 7,2 C 3,9 C 97 % 1004,2 hPa 0,0 l/m 0 min 0 min 0 W/m 16,1 km/h (3 Bft) 97,37 %
24.11.2022 00:04 7,8 C 7,2 C 3,9 C 96 % 1004,2 hPa 0,0 l/m 0 min 0 min 0 W/m 16,1 km/h (3 Bft) 95,74 %
24.11.2022 00:08 7,8 C 7,2 C 3,9 C 96 % 1004,2 hPa 0,0 l/m 0 min 0 min 0 W/m 19,3 km/h (3 Bft) 93,62 %
24.11.2022 00:10 7,8 C 7,2 C 3,9 C 96 % 1004,3 hPa 0,0 l/m 0 min 0 min 0 W/m 12,9 km/h (3 Bft) 95,74 %
24.11.2022 00:12 7,8 C 7,2 C 3,9 C 96 % 1004,4 hPa 0,0 l/m 0 min 0 min 0 W/m 16,1 km/h (3 Bft) 93,48 %
24.11.2022 00:14 7,8 C 7,2 C 3,9 C 96 % 1004,3 hPa 0,0 l/m 0 min 0 min 0 W/m 9,7 km/h (2 Bft) 93,62 %
24.11.2022 00:16 7,8 C 7,2 C 3,9 C 96 % 1004,4 hPa 0,0 l/m 0 min 0 min 0 W/m 19,3 km/h (3 Bft) 95,74 %
24.11.2022 00:18 7,8 C 7,2 C 3,9 C 96 % 1004,4 hPa 0,0 l/m 0 min 0 min 0 W/m 22,5 km/h (4 Bft) 95,74 %
24.11.2022 00:20 7,8 C 7,2 C 3,9 C 96 % 1004,4 hPa 0,0 l/m 0 min 0 min 0 W/m 19,3 km/h (3 Bft) 95,74 %
24.11.2022 00:22 7,8 C 7,2 C 3,9 C 96 % 1004,4 hPa 0,0 l/m 0 min 0 min 0 W/m 9,7 km/h (2 Bft) 95,74 %
24.11.2022 00:24 7,8 C 7,2 C 3,9 C 96 % 1004,4 hPa 0,0 l/m 0 min 0 min 0 W/m 12,9 km/h (3 Bft) 91,30 %
24.11.2022 00:26 7,8 C 7,2 C 3,9 C 96 % 1004,4 hPa 0,0 l/m 0 min 0 min 0 W/m 19,3 km/h (3 Bft) 93,62 %
24.11.2022 00:28 7,8 C 7,2 C 3,9 C 96 % 1004,5 hPa 0,0 l/m 0 min 0 min 0 W/m 16,1 km/h (3 Bft) 97,87 %
24.11.2022 00:30 7,8 C 7,2 C 3,9 C 96 % 1004,6 hPa 0,0 l/m 0 min 0 min 0 W/m 9,7 km/h (2 Bft) 97,87 %
24.11.2022 00:32 7,8 C 7,2 C 3,9 C 96 % 1004,6 hPa 0,0 l/m 0 min 0 min 0 W/m 19,3 km/h (3 Bft) 97,87 %
24.11.2022 00:34 7,8 C 7,2 C 3,9 C 96 % 1004,6 hPa 0,0 l/m 0 min 0 min 0 W/m 16,1 km/h (3 Bft) 97,83 %
24.11.2022 00:36 7,8 C 7,2 C 3,9 C 96 % 1004,6 hPa 0,0 l/m 0 min 0 min 0 W/m 16,1 km/h (3 Bft) 93,62 %
24.11.2022 00:38 7,8 C 7,2 C 3,9 C 96 % 1004,6 hPa 0,0 l/m 0 min 0 min 0 W/m 12,9 km/h (3 Bft) 100,00 %
24.11.2022 00:40 7,8 C 7,2 C 3,9 C 96 % 1004,6 hPa 0,0 l/m 0 min 0 min 0 W/m 16,1 km/h (3 Bft) 100,00 %
24.11.2022 00:42 7,8 C 7,2 C 3,9 C 96 % 1004,7 hPa 0,0 l/m 0 min 0 min 0 W/m 12,9 km/h (3 Bft) 97,87 %
24.11.2022 00:44 7,8 C 7,2 C 3,9 C 96 % 1004,7 hPa 0,0 l/m 0 min 0 min 0 W/m 12,9 km/h (3 Bft) 97,87 %
24.11.2022 00:46 7,8 C 7,2 C 3,9 C 96 % 1004,6 hPa 0,0 l/m 0 min 0 min 0 W/m 16,1 km/h (3 Bft) 100,00 %
24.11.2022 00:48 7,8 C 7,2 C 3,9 C 96 % 1004,6 hPa 0,0 l/m 0 min 0 min 0 W/m 22,5 km/h (4 Bft) 97,87 %
24.11.2022 00:50 7,8 C 7,2 C 3,9 C 96 % 1004,6 hPa 0,0 l/m 0 min 0 min 0 W/m 16,1 km/h (3 Bft) 100,00 %
24.11.2022 00:52 7,8 C 7,2 C 3,9 C 96 % 1004,7 hPa 0,0 l/m 0 min 0 min 0 W/m 19,3 km/h (3 Bft) 97,87 %
24.11.2022 00:54 7,8 C 7,2 C 3,9 C 96 % 1004,7 hPa 0,0 l/m 0 min 0 min 0 W/m 12,9 km/h (3 Bft) 48,72 %
24.11.2022 00:56 7,8 C 7,2 C 3,9 C 96 % 1004,7 hPa 0,0 l/m 0 min 0 min 0 W/m 16,1 km/h (3 Bft) 97,87 %
24.11.2022 00:58 7,8 C 7,2 C 3,9 C 96 % 1004,6 hPa 0,0 l/m 0 min 0 min 0 W/m 12,9 km/h (3 Bft) 100,00 %
24.11.2022 01:00 7,8 C 7,2 C 3,9 C 95 % 1004,7 hPa 0,0 l/m 0 min 0 min 0 W/m 6,4 km/h (2 Bft) 97,87 %
24.11.2022 01:02 7,8 C 7,2 C 3,9 C 95 % 1004,7 hPa 0,0 l/m 0 min 0 min 0 W/m 9,7 km/h (2 Bft) 97,87 %
24.11.2022 01:04 7,8 C 7,2 C 3,9 C 95 % 1004,7 hPa 0,0 l/m 0 min 0 min 0 W/m 22,5 km/h (4 Bft) 97,92 %
24.11.2022 01:06 7,8 C 7,2 C 3,9 C 95 % 1004,7 hPa 0,0 l/m 0 min 0 min 0 W/m 16,1 km/h (3 Bft) 93,62 %
24.11.2022 01:08 7,8 C 7,2 C 3,9 C 95 % 1004,7 hPa 0,0 l/m 0 min 0 min 0 W/m 6,4 km/h (2 Bft) 100,00 %
24.11.2022 01:10 7,9 C 7,2 C 3,9 C 95 % 1004,7 hPa 0,0 l/m 0 min 0 min 0 W/m 12,9 km/h (3 Bft) 100,00 %
24.11.2022 01:12 7,9 C 7,2 C 3,9 C 95 % 1004,7 hPa 0,0 l/m 0 min 0 min 0 W/m 12,9 km/h (3 Bft) 97,87 %
24.11.2022 01:14 7,9 C 7,2 C 3,9 C 95 % 1004,7 hPa 0,0 l/m 0 min 0 min 0 W/m 22,5 km/h (4 Bft) 97,87 %
24.11.2022 01:16 7,9 C 7,2 C 3,9 C 95 % 1004,7 hPa 0,0 l/m 0 min 0 min 0 W/m 22,5 km/h (4 Bft) 100,00 %
24.11.2022 01:18 7,9 C 7,2 C 3,9 C 95 % 1004,7 hPa 0,0 l/m 0 min 0 min 0 W/m 22,5 km/h (4 Bft) 95,65 %
24.11.2022 01:20 8,0 C 7,2 C 3,9 C 95 % 1004,8 hPa 0,0 l/m 0 min 0 min 0 W/m 29,0 km/h (5 Bft) 97,87 %
24.11.2022 01:22 8,1 C 7,2 C 3,9 C 95 % 1004,8 hPa 0,0 l/m 0 min 0 min 0 W/m 19,3 km/h (3 Bft) 97,87 %
24.11.2022 01:24 8,1 C 7,2 C 3,9 C 95 % 1004,7 hPa 0,0 l/m 0 min 0 min 0 W/m 16,1 km/h (3 Bft) 93,62 %
24.11.2022 01:26 8,1 C 7,8 C 3,9 C 95 % 1004,8 hPa 0,0 l/m 0 min 0 min 0 W/m 22,5 km/h (4 Bft) 97,87 %
24.11.2022 01:28 8,1 C 7,8 C 3,9 C 94 % 1004,7 hPa 0,0 l/m 0 min 0 min 0 W/m 19,3 km/h (3 Bft) 97,83 %
24.11.2022 01:30 8,1 C 7,8 C 3,9 C 94 % 1004,7 hPa 0,0 l/m 0 min 0 min 0 W/m 19,3 km/h (3 Bft) 95,74 %
24.11.2022 01:32 8,1 C 7,8 C 3,9 C 94 % 1004,8 hPa 0,0 l/m 0 min 0 min 0 W/m 19,3 km/h (3 Bft) 97,87 %
24.11.2022 01:34 8,2 C 7,8 C 3,9 C 94 % 1004,8 hPa 0,0 l/m 0 min 0 min 0 W/m 16,1 km/h (3 Bft) 97,87 %
24.11.2022 01:36 8,2 C 7,8 C 3,9 C 94 % 1004,8 hPa 0,0 l/m 0 min 0 min 0 W/m 16,1 km/h (3 Bft) 95,74 %
24.11.2022 01:38 8,2 C 7,8 C 3,9 C 94 % 1004,8 hPa 0,0 l/m 0 min 0 min 0 W/m 16,1 km/h (3 Bft) 95,74 %
24.11.2022 01:40 8,2 C 7,8 C 3,9 C 94 % 1004,8 hPa 0,0 l/m 0 min 0 min 0 W/m 12,9 km/h (3 Bft) 97,83 %
24.11.2022 01:42 8,2 C 7,8 C 3,9 C 94 % 1004,9 hPa 0,0 l/m 0 min 0 min 0 W/m 22,5 km/h (4 Bft) 95,74 %
24.11.2022 01:44 8,2 C 7,8 C 3,9 C 94 % 1004,9 hPa 0,0 l/m 0 min 0 min 0 W/m 19,3 km/h (3 Bft) 97,87 %
24.11.2022 01:46 8,2 C 7,8 C 3,9 C 93 % 1004,8 hPa 0,0 l/m 0 min 0 min 0 W/m 22,5 km/h (4 Bft) 95,74 %
24.11.2022 01:48 8,2 C 7,8 C 3,9 C 93 % 1004,9 hPa 0,0 l/m 0 min 0 min 0 W/m 16,1 km/h (3 Bft) 97,87 %
24.11.2022 01:50 8,2 C 7,8 C 3,9 C 93 % 1004,9 hPa 0,0 l/m 0 min 0 min 0 W/m 12,9 km/h (3 Bft) 100,00 %
24.11.2022 01:52 8,2 C 7,2 C 3,9 C 93 % 1004,8 hPa 0,0 l/m 0 min 0 min 0 W/m 6,4 km/h (2 Bft) 100,00 %
24.11.2022 01:54 8,2 C 7,2 C 3,9 C 93 % 1004,9 hPa 0,0 l/m 0 min 0 min 0 W/m 12,9 km/h (3 Bft) 100,00 %
24.11.2022 01:56 8,2 C 7,8 C 3,9 C 93 % 1004,9 hPa 0,0 l/m 0 min 0 min 0 W/m 19,3 km/h (3 Bft) 100,00 %
24.11.2022 01:58 8,2 C 7,2 C 3,9 C 93 % 1004,9 hPa 0,0 l/m 0 min 0 min 0 W/m 12,9 km/h (3 Bft) 100,00 %
24.11.2022 02:00 8,2 C 7,2 C 3,9 C 93 % 1005,0 hPa 0,0 l/m 0 min 0 min 0 W/m 16,1 km/h (3 Bft) 100,00 %
24.11.2022 02:02 8,2 C 7,2 C 3,9 C 93 % 1005,0 hPa 0,0 l/m 0 min 0 min 0 W/m 12,9 km/h (3 Bft) 100,00 %
24.11.2022 02:04 8,2 C 7,8 C 3,9 C 93 % 1005,0 hPa 0,0 l/m 0 min 0 min 0 W/m 19,3 km/h (3 Bft) 93,62 %
24.11.2022 02:06 8,3 C 7,8 C 3,9 C 93 % 1005,1 hPa 0,0 l/m 0 min 0 min 0 W/m 19,3 km/h (3 Bft) 98,28 %
24.11.2022 02:08 8,3 C 7,8 C 3,9 C 93 % 1005,1 hPa 0,0 l/m 0 min 0 min 0 W/m 16,1 km/h (3 Bft) 100,00 %
24.11.2022 02:10 8,3 C 7,8 C 3,9 C 93 % 1005,1 hPa 0,0 l/m 0 min 0 min 0 W/m 16,1 km/h (3 Bft) 100,00 %
24.11.2022 02:14 8,3 C 7,8 C 3,9 C 93 % 1005,1 hPa 0,0 l/m 0 min 0 min 0 W/m 6,4 km/h (2 Bft) 100,00 %
24.11.2022 02:16 8,3 C 7,8 C 3,9 C 93 % 1005,2 hPa 0,0 l/m 0 min 0 min 0 W/m 25,7 km/h (4 Bft) 95,74 %
24.11.2022 02:18 8,3 C 7,8 C 3,9 C 93 % 1005,1 hPa 0,0 l/m 0 min 0 min 0 W/m 12,9 km/h (3 Bft) 100,00 %
24.11.2022 02:20 8,3 C 7,8 C 3,9 C 93 % 1005,2 hPa 0,0 l/m 0 min 0 min 0 W/m 25,7 km/h (4 Bft) 97,87 %
24.11.2022 02:22 8,3 C 7,8 C 3,9 C 92 % 1005,2 hPa 0,0 l/m 0 min 0 min 0 W/m 19,3 km/h (3 Bft) 97,87 %
24.11.2022 02:24 8,3 C 7,8 C 3,9 C 92 % 1005,2 hPa 0,0 l/m 0 min 0 min 0 W/m 12,9 km/h (3 Bft) 97,83 %
24.11.2022 02:26 8,3 C 7,8 C 3,9 C 92 % 1005,2 hPa 0,0 l/m 0 min 0 min 0 W/m 29,0 km/h (5 Bft) 97,87 %
24.11.2022 02:28 8,3 C 7,8 C 3,9 C 92 % 1005,2 hPa 0,0 l/m 0 min 0 min 0 W/m 16,1 km/h (3 Bft) 100,00 %
24.11.2022 02:30 8,3 C 7,8 C 3,9 C 92 % 1005,2 hPa 0,0 l/m 0 min 0 min 0 W/m 16,1 km/h (3 Bft) 97,87 %
24.11.2022 02:32 8,3 C 7,8 C 3,9 C 92 % 1005,2 hPa 0,0 l/m 0 min 0 min 0 W/m 16,1 km/h (3 Bft) 97,87 %
24.11.2022 02:34 8,3 C 7,8 C 3,9 C 92 % 1005,2 hPa 0,0 l/m 0 min 0 min 0 W/m 12,9 km/h (3 Bft) 97,87 %
24.11.2022 02:36 8,3 C 7,8 C 3,9 C 92 % 1005,3 hPa 0,0 l/m 0 min 0 min 0 W/m 25,7 km/h (4 Bft) 97,83 %
24.11.2022 02:38 8,3 C 7,2 C 3,9 C 92 % 1005,2 hPa 0,0 l/m 0 min 0 min 0 W/m 9,7 km/h (2 Bft) 97,87 %
24.11.2022 02:40 8,3 C 7,2 C 3,9 C 92 % 1005,2 hPa 0,0 l/m 0 min 0 min 0 W/m 12,9 km/h (3 Bft) 95,74 %
24.11.2022 02:42 8,3 C 7,2 C 3,9 C 92 % 1005,2 hPa 0,0 l/m 0 min 0 min 0 W/m 16,1 km/h (3 Bft) 97,87 %
24.11.2022 02:44 8,3 C 7,2 C 3,9 C 92 % 1005,2 hPa 0,0 l/m 0 min 0 min 0 W/m 9,7 km/h (2 Bft) 97,87 %
24.11.2022 02:46 8,3 C 7,2 C 3,9 C 92 % 1005,2 hPa 0,0 l/m 0 min 0 min 0 W/m 12,9 km/h (3 Bft) 97,87 %
24.11.2022 02:48 8,2 C 7,2 C 3,9 C 92 % 1005,2 hPa 0,0 l/m 0 min 0 min 0 W/m 12,9 km/h (3 Bft) 95,65 %
24.11.2022 02:50 8,2 C 7,2 C 3,9 C 92 % 1005,2 hPa 0,0 l/m 0 min 0 min 0 W/m 12,9 km/h (3 Bft) 98,25 %
24.11.2022 02:56 8,1 C 7,2 C 3,9 C 92 % 1005,3 hPa 0,0 l/m 0 min 0 min 0 W/m 12,9 km/h (3 Bft) 100,00 %
24.11.2022 02:58 8,1 C 7,2 C 3,9 C 92 % 1005,3 hPa 0,0 l/m 0 min 0 min 0 W/m 12,9 km/h (3 Bft) 95,74 %
24.11.2022 03:00 8,1 C 7,2 C 3,9 C 92 % 1005,3 hPa 0,0 l/m 0 min 0 min 0 W/m 16,1 km/h (3 Bft) 95,45 %
24.11.2022 03:02 8,1 C 7,2 C 3,9 C 92 % 1005,3 hPa 0,0 l/m 0 min 0 min 0 W/m 9,7 km/h (2 Bft) 97,87 %
24.11.2022 03:04 8,1 C 7,2 C 3,9 C 92 % 1005,3 hPa 0,0 l/m 0 min 0 min 0 W/m 6,4 km/h (2 Bft) 97,92 %
24.11.2022 03:06 8,1 C 7,2 C 3,9 C 92 % 1005,4 hPa 0,0 l/m 0 min 0 min 0 W/m 6,4 km/h (2 Bft) 96,55 %
24.11.2022 03:08 8,1 C 7,2 C 3,9 C 92 % 1005,3 hPa 0,0 l/m 0 min 0 min 0 W/m 3,2 km/h (1 Bft) 97,14 %
24.11.2022 03:10 8,1 C 7,2 C 3,9 C 92 % 1005,4 hPa 0,0 l/m 0 min 0 min 0 W/m 12,9 km/h (3 Bft) 93,62 %
24.11.2022 03:12 8,0 C 7,2 C 3,9 C 92 % 1005,4 hPa 0,0 l/m 0 min 0 min 0 W/m 3,2 km/h (1 Bft) 95,74 %
24.11.2022 03:14 8,0 C 7,2 C 3,9 C 92 % 1005,5 hPa 0,0 l/m 0 min 0 min 0 W/m 9,7 km/h (2 Bft) 95,74 %
24.11.2022 03:16 8,0 C 7,2 C 3,9 C 92 % 1005,5 hPa 0,0 l/m 0 min 0 min 0 W/m 12,9 km/h (3 Bft) 95,74 %
24.11.2022 03:18 7,9 C 7,2 C 3,9 C 92 % 1005,5 hPa 0,0 l/m 0 min 0 min 0 W/m 6,4 km/h (2 Bft) 93,62 %
24.11.2022 03:20 7,9 C 7,2 C 3,9 C 92 % 1005,5 hPa 0,0 l/m 0 min 0 min 0 W/m 12,9 km/h (3 Bft) 95,65 %
24.11.2022 03:22 7,9 C 7,2 C 3,9 C 92 % 1005,4 hPa 0,0 l/m 0 min 0 min 0 W/m 16,1 km/h (3 Bft) 97,87 %
24.11.2022 03:24 7,9 C 7,2 C 3,9 C 92 % 1005,5 hPa 0,0 l/m 0 min 0 min 0 W/m 12,9 km/h (3 Bft) 95,74 %
24.11.2022 03:26 7,9 C 7,2 C 3,9 C 92 % 1005,5 hPa 0,0 l/m 0 min 0 min 0 W/m 12,9 km/h (3 Bft) 95,74 %
24.11.2022 03:28 7,9 C 7,2 C 3,9 C 92 % 1005,5 hPa 0,0 l/m 0 min 0 min 0 W/m 19,3 km/h (3 Bft) 95,74 %
24.11.2022 03:30 8,0 C 7,2 C 3,9 C 92 % 1005,5 hPa 0,0 l/m 0 min 0 min 0 W/m 22,5 km/h (4 Bft) 95,74 %
24.11.2022 03:32 8,0 C 7,2 C 3,9 C 92 % 1005,5 hPa 0,0 l/m 0 min 0 min 0 W/m 6,4 km/h (2 Bft) 95,65 %
24.11.2022 03:34 8,0 C 7,2 C 3,9 C 92 % 1005,5 hPa 0,0 l/m 0 min 0 min 0 W/m 12,9 km/h (3 Bft) 95,74 %
24.11.2022 03:36 8,0 C 7,2 C 3,9 C 92 % 1005,5 hPa 0,0 l/m 0 min 0 min 0 W/m 16,1 km/h (3 Bft) 93,62 %
24.11.2022 03:38 8,1 C 7,2 C 3,9 C 92 % 1005,6 hPa 0,0 l/m 0 min 0 min 0 W/m 12,9 km/h (3 Bft) 95,74 %
24.11.2022 03:40 8,1 C 7,2 C 3,9 C 92 % 1005,6 hPa 0,0 l/m 0 min 0 min 0 W/m 12,9 km/h (3 Bft) 95,74 %
24.11.2022 03:42 8,1 C 7,2 C 3,9 C 92 % 1005,5 hPa 0,0 l/m 0 min 0 min 0 W/m 16,1 km/h (3 Bft) 97,87 %
24.11.2022 03:44 8,1 C 7,2 C 3,9 C 92 % 1005,5 hPa 0,0 l/m 0 min 0 min 0 W/m 6,4 km/h (2 Bft) 97,83 %
24.11.2022 03:46 8,1 C 7,2 C 3,9 C 92 % 1005,5 hPa 0,0 l/m 0 min 0 min 0 W/m 16,1 km/h (3 Bft) 100,00 %
24.11.2022 03:48 8,1 C 7,2 C 3,9 C 92 % 1005,6 hPa 0,0 l/m 0 min 0 min 0 W/m 9,7 km/h (2 Bft) 97,87 %
24.11.2022 03:50 8,1 C 7,2 C 3,9 C 93 % 1005,6 hPa 0,0 l/m 0 min 0 min 0 W/m 9,7 km/h (2 Bft) 100,00 %
24.11.2022 03:52 8,1 C 7,2 C 3,9 C 93 % 1005,6 hPa 0,0 l/m 0 min 0 min 0 W/m 25,7 km/h (4 Bft) 97,87 %
24.11.2022 03:54 8,2 C 7,2 C 3,9 C 93 % 1005,6 hPa 0,0 l/m 0 min 0 min 0 W/m 6,4 km/h (2 Bft) 100,00 %
24.11.2022 03:56 8,2 C 7,2 C 3,9 C 93 % 1005,6 hPa 0,0 l/m 0 min 0 min 0 W/m 6,4 km/h (2 Bft) 100,00 %
24.11.2022 03:58 8,2 C 7,2 C 3,9 C 93 % 1005,6 hPa 0,0 l/m 0 min 0 min 0 W/m 6,4 km/h (2 Bft) 100,00 %
24.11.2022 04:00 8,2 C 7,2 C 3,9 C 93 % 1005,6 hPa 0,0 l/m 0 min 0 min 0 W/m 16,1 km/h (3 Bft) 100,00 %
24.11.2022 04:02 8,2 C 7,2 C 3,9 C 93 % 1005,6 hPa 0,0 l/m 0 min 0 min 0 W/m 9,7 km/h (2 Bft) 97,87 %
24.11.2022 04:04 8,2 C 7,2 C 3,9 C 93 % 1005,5 hPa 0,0 l/m 0 min 0 min 0 W/m 12,9 km/h (3 Bft) 100,00 %
24.11.2022 04:06 8,2 C 7,2 C 3,9 C 93 % 1005,6 hPa 0,0 l/m 0 min 0 min 0 W/m 22,5 km/h (4 Bft) 100,00 %
24.11.2022 04:08 8,2 C 7,8 C 3,9 C 93 % 1005,6 hPa 0,0 l/m 0 min 0 min 0 W/m 22,5 km/h (4 Bft) 100,00 %
24.11.2022 04:10 8,2 C 7,8 C 3,9 C 93 % 1005,7 hPa 0,0 l/m 0 min 0 min 0 W/m 19,3 km/h (3 Bft) 100,00 %
24.11.2022 04:12 8,2 C 7,8 C 3,9 C 92 % 1005,7 hPa 0,0 l/m 0 min 0 min 0 W/m 22,5 km/h (4 Bft) 97,87 %
24.11.2022 04:14 8,2 C 7,8 C 3,9 C 92 % 1005,7 hPa 0,0 l/m 0 min 0 min 0 W/m 19,3 km/h (3 Bft) 97,87 %
24.11.2022 04:16 8,2 C 7,8 C 3,9 C 92 % 1005,8 hPa 0,0 l/m 0 min 0 min 0 W/m 22,5 km/h (4 Bft) 100,00 %
24.11.2022 04:18 8,3 C 7,8 C 3,9 C 92 % 1005,8 hPa 0,0 l/m 0 min 0 min 0 W/m 19,3 km/h (3 Bft) 100,00 %
24.11.2022 04:20 8,3 C 7,8 C 3,9 C 92 % 1005,8 hPa 0,0 l/m 0 min 0 min 0 W/m 16,1 km/h (3 Bft) 100,00 %
24.11.2022 04:22 8,3 C 7,8 C 3,9 C 92 % 1005,8 hPa 0,0 l/m 0 min 0 min 0 W/m 16,1 km/h (3 Bft) 100,00 %
24.11.2022 04:24 8,3 C 7,8 C 3,9 C 92 % 1005,8 hPa 0,0 l/m 0 min 0 min 0 W/m 12,9 km/h (3 Bft) 97,87 %
24.11.2022 04:26 8,3 C 7,8 C 3,9 C 92 % 1005,9 hPa 0,0 l/m 0 min 0 min 0 W/m 12,9 km/h (3 Bft) 100,00 %
24.11.2022 04:28 8,3 C 7,8 C 3,9 C 92 % 1005,9 hPa 0,0 l/m 0 min 0 min 0 W/m 22,5 km/h (4 Bft) 100,00 %
24.11.2022 04:30 8,3 C 7,8 C 3,9 C 92 % 1006,0 hPa 0,0 l/m 0 min 0 min 0 W/m 25,7 km/h (4 Bft) 100,00 %
24.11.2022 04:32 8,4 C 7,8 C 3,9 C 92 % 1005,9 hPa 0,0 l/m 0 min 0 min 0 W/m 16,1 km/h (3 Bft) 97,87 %
24.11.2022 04:34 8,4 C 7,8 C 3,9 C 92 % 1005,9 hPa 0,0 l/m 0 min 0 min 0 W/m 12,9 km/h (3 Bft) 97,87 %
24.11.2022 04:36 8,4 C 7,8 C 3,9 C 92 % 1005,9 hPa 0,0 l/m 0 min 2 min 0 W/m 19,3 km/h (3 Bft) 95,74 %
24.11.2022 04:38 8,4 C 7,8 C 4,4 C 92 % 1005,9 hPa 0,0 l/m 0 min 2 min 0 W/m 9,7 km/h (2 Bft) 97,87 %
24.11.2022 04:40 8,4 C 7,8 C 4,4 C 92 % 1005,9 hPa 0,0 l/m 0 min 2 min 0 W/m 12,9 km/h (3 Bft) 97,87 %
24.11.2022 04:42 8,4 C 7,8 C 4,4 C 92 % 1005,9 hPa 0,0 l/m 0 min 0 min 0 W/m 16,1 km/h (3 Bft) 97,83 %
24.11.2022 04:44 8,4 C 7,8 C 4,4 C 92 % 1005,9 hPa 0,0 l/m 0 min 0 min 0 W/m 16,1 km/h (3 Bft) 97,87 %
24.11.2022 04:46 8,4 C 7,8 C 4,4 C 92 % 1005,9 hPa 0,0 l/m 0 min 2 min 0 W/m 12,9 km/h (3 Bft) 95,74 %
24.11.2022 04:48 8,5 C 7,8 C 4,4 C 92 % 1006,0 hPa 0,0 l/m 0 min 0 min 0 W/m 12,9 km/h (3 Bft) 97,87 %
24.11.2022 04:50 8,5 C 7,8 C 4,4 C 92 % 1006,0 hPa 0,0 l/m 0 min 0 min 0 W/m 16,1 km/h (3 Bft) 95,74 %
24.11.2022 04:52 8,5 C 7,8 C 4,4 C 92 % 1006,0 hPa 0,0 l/m 0 min 2 min 0 W/m 22,5 km/h (4 Bft) 97,87 %
24.11.2022 04:54 8,5 C 7,8 C 4,4 C 92 % 1006,1 hPa 0,0 l/m 0 min 2 min 0 W/m 22,5 km/h (4 Bft) 97,83 %
24.11.2022 04:56 8,6 C 7,8 C 4,4 C 92 % 1006,0 hPa 0,0 l/m 0 min 0 min 0 W/m 19,3 km/h (3 Bft) 97,87 %
24.11.2022 04:58 8,6 C 7,8 C 4,4 C 92 % 1006,1 hPa 0,0 l/m 0 min 0 min 0 W/m 12,9 km/h (3 Bft) 95,74 %
24.11.2022 05:00 8,6 C 7,8 C 4,4 C 92 % 1006,1 hPa 0,0 l/m 0 min 0 min 0 W/m 12,9 km/h (3 Bft) 80,85 %
24.11.2022 05:02 8,6 C 7,8 C 4,4 C 92 % 1006,1 hPa 0,0 l/m 0 min 0 min 0 W/m 19,3 km/h (3 Bft) 55,17 %
24.11.2022 05:04 8,6 C 7,8 C 4,4 C 92 % 1006,1 hPa 0,0 l/m 0 min 2 min 0 W/m 19,3 km/h (3 Bft) 95,83 %
24.11.2022 05:06 8,6 C 7,8 C 4,4 C 92 % 1006,1 hPa 0,0 l/m 0 min 2 min 0 W/m 16,1 km/h (3 Bft) 95,65 %
24.11.2022 05:08 8,6 C 7,8 C 4,4 C 92 % 1006,1 hPa 0,0 l/m 0 min 0 min 0 W/m 9,7 km/h (2 Bft) 93,62 %
24.11.2022 05:10 8,6 C 7,8 C 4,4 C 92 % 1006,1 hPa 0,0 l/m 0 min 0 min 0 W/m 19,3 km/h (3 Bft) 97,87 %
24.11.2022 05:12 8,6 C 7,8 C 4,4 C 92 % 1006,1 hPa 0,0 l/m 0 min 0 min 0 W/m 25,7 km/h (4 Bft) 97,87 %
24.11.2022 05:14 8,6 C 7,8 C 4,4 C 91 % 1006,1 hPa 0,0 l/m 0 min 0 min 0 W/m 16,1 km/h (3 Bft) 97,87 %
24.11.2022 05:16 8,7 C 7,8 C 4,4 C 91 % 1006,1 hPa 0,0 l/m 0 min 2 min 0 W/m 41,8 km/h (6 Bft) 97,87 %
24.11.2022 05:18 8,7 C 7,8 C 4,4 C 91 % 1006,1 hPa 0,0 l/m 0 min 0 min 0 W/m 16,1 km/h (3 Bft) 95,65 %
24.11.2022 05:20 8,7 C 7,8 C 4,4 C 91 % 1006,1 hPa 0,0 l/m 0 min 0 min 0 W/m 22,5 km/h (4 Bft) 95,74 %
24.11.2022 05:22 8,7 C 7,8 C 4,4 C 91 % 1006,1 hPa 0,0 l/m 0 min 0 min 0 W/m 16,1 km/h (3 Bft) 95,74 %
24.11.2022 05:24 8,7 C 7,8 C 4,4 C 91 % 1006,2 hPa 0,0 l/m 0 min 0 min 0 W/m 19,3 km/h (3 Bft) 97,87 %
24.11.2022 05:26 8,7 C 7,8 C 4,4 C 91 % 1006,1 hPa 0,0 l/m 0 min 0 min 0 W/m 12,9 km/h (3 Bft) 97,87 %
24.11.2022 05:28 8,7 C 7,8 C 4,4 C 91 % 1006,2 hPa 0,0 l/m 0 min 0 min 0 W/m 12,9 km/h (3 Bft) 97,87 %
24.11.2022 05:30 8,7 C 7,8 C 4,4 C 91 % 1006,1 hPa 0,0 l/m 0 min 0 min 0 W/m 16,1 km/h (3 Bft) 100,00 %
24.11.2022 05:32 8,7 C 7,8 C 4,4 C 91 % 1006,1 hPa 0,0 l/m 0 min 0 min 0 W/m 25,7 km/h (4 Bft) 97,87 %
24.11.2022 05:34 8,7 C 7,8 C 4,4 C 91 % 1006,1 hPa 0,0 l/m 0 min 0 min 0 W/m 12,9 km/h (3 Bft) 100,00 %
24.11.2022 05:36 8,7 C 7,8 C 4,4 C 91 % 1006,1 hPa 0,0 l/m 0 min 0 min 0 W/m 16,1 km/h (3 Bft) 100,00 %
24.11.2022 05:38 8,7 C 7,8 C 4,4 C 91 % 1006,1 hPa 0,0 l/m 0 min 0 min 0 W/m 19,3 km/h (3 Bft) 100,00 %
24.11.2022 05:40 8,7 C 7,8 C 4,4 C 91 % 1006,1 hPa 0,0 l/m 0 min 0 min 0 W/m 22,5 km/h (4 Bft) 100,00 %
24.11.2022 05:42 8,7 C 7,8 C 4,4 C 91 % 1006,1 hPa 0,0 l/m 0 min 0 min 0 W/m 12,9 km/h (3 Bft) 97,83 %
24.11.2022 05:44 8,7 C 7,8 C 4,4 C 91 % 1006,2 hPa 0,0 l/m 0 min 0 min 0 W/m 29,0 km/h (5 Bft) 100,00 %
24.11.2022 05:46 8,7 C 7,8 C 4,4 C 91 % 1006,3 hPa 0,0 l/m 0 min 0 min 0 W/m 29,0 km/h (5 Bft) 100,00 %
24.11.2022 05:48 8,8 C 8,3 C 4,4 C 91 % 1006,3 hPa 0,0 l/m 0 min 0 min 0 W/m 29,0 km/h (5 Bft) 100,00 %
24.11.2022 05:50 8,8 C 8,3 C 4,4 C 91 % 1006,3 hPa 0,0 l/m 0 min 0 min 0 W/m 25,7 km/h (4 Bft) 100,00 %
24.11.2022 05:52 8,8 C 8,3 C 4,4 C 90 % 1006,2 hPa 0,0 l/m 0 min 0 min 0 W/m 19,3 km/h (3 Bft) 100,00 %
24.11.2022 05:54 8,8 C 8,3 C 4,4 C 90 % 1006,2 hPa 0,0 l/m 0 min 0 min 0 W/m 22,5 km/h (4 Bft) 100,00 %
24.11.2022 05:56 8,8 C 8,3 C 4,4 C 90 % 1006,3 hPa 0,0 l/m 0 min 0 min 0 W/m 12,9 km/h (3 Bft) 100,00 %
24.11.2022 05:58 8,8 C 8,3 C 4,4 C 90 % 1006,3 hPa 0,0 l/m 0 min 0 min 0 W/m 22,5 km/h (4 Bft) 100,00 %
24.11.2022 06:00 8,8 C 8,3 C 4,4 C 90 % 1006,3 hPa 0,0 l/m 0 min 0 min 0 W/m 22,5 km/h (4 Bft) 97,87 %
24.11.2022 06:02 8,9 C 8,3 C 4,4 C 90 % 1006,3 hPa 0,0 l/m 0 min 0 min 0 W/m 16,1 km/h (3 Bft) 97,87 %
24.11.2022 06:04 8,9 C 8,3 C 4,4 C 90 % 1006,2 hPa 0,0 l/m 0 min 0 min 0 W/m 16,1 km/h (3 Bft) 95,83 %
24.11.2022 06:08 8,9 C 8,3 C 4,4 C 90 % 1006,3 hPa 0,0 l/m 0 min 0 min 0 W/m 25,7 km/h (4 Bft) 94,79 %
24.11.2022 06:10 8,9 C 8,3 C 4,4 C 90 % 1006,3 hPa 0,0 l/m 0 min 0 min 0 W/m 16,1 km/h (3 Bft) 97,87 %
24.11.2022 06:12 8,9 C 8,3 C 4,4 C 90 % 1006,3 hPa 0,0 l/m 0 min 0 min 0 W/m 29,0 km/h (5 Bft) 97,87 %
24.11.2022 06:14 9,0 C 8,3 C 5,0 C 90 % 1006,3 hPa 0,0 l/m 0 min 0 min 0 W/m 29,0 km/h (5 Bft) 97,87 %
24.11.2022 06:16 9,0 C 8,3 C 5,0 C 90 % 1006,4 hPa 0,0 l/m 0 min 0 min 0 W/m 22,5 km/h (4 Bft) 97,83 %
24.11.2022 06:18 9,0 C 8,3 C 5,0 C 90 % 1006,4 hPa 0,0 l/m 0 min 0 min 0 W/m 29,0 km/h (5 Bft) 97,87 %
24.11.2022 06:20 9,1 C 8,3 C 5,0 C 90 % 1006,4 hPa 0,0 l/m 0 min 0 min 0 W/m 25,7 km/h (4 Bft) 97,87 %
24.11.2022 06:22 9,1 C 8,3 C 5,0 C 90 % 1006,5 hPa 0,0 l/m 0 min 0 min 0 W/m 29,0 km/h (5 Bft) 95,74 %
24.11.2022 06:24 9,1 C 8,3 C 5,0 C 89 % 1006,5 hPa 0,0 l/m 0 min 0 min 0 W/m 22,5 km/h (4 Bft) 97,87 %
24.11.2022 06:26 9,1 C 8,3 C 5,0 C 90 % 1006,6 hPa 0,0 l/m 0 min 0 min 0 W/m 25,7 km/h (4 Bft) 93,62 %
24.11.2022 06:28 9,1 C 8,3 C 5,0 C 90 % 1006,6 hPa 0,0 l/m 0 min 0 min 0 W/m 29,0 km/h (5 Bft) 95,65 %
24.11.2022 06:30 9,1 C 8,3 C 5,0 C 90 % 1006,6 hPa 0,0 l/m 0 min 0 min 0 W/m 25,7 km/h (4 Bft) 97,87 %
24.11.2022 06:32 9,1 C 8,3 C 5,0 C 90 % 1006,7 hPa 0,0 l/m 0 min 0 min 0 W/m 19,3 km/h (3 Bft) 16,67 %
24.11.2022 06:34 9,1 C 8,3 C 5,0 C 89 % 1006,7 hPa 0,0 l/m 0 min 0 min 0 W/m 19,3 km/h (3 Bft) 100,00 %
24.11.2022 06:36 9,1 C 8,3 C 5,0 C 89 % 1006,7 hPa 0,0 l/m 0 min 0 min 0 W/m 25,7 km/h (4 Bft) 97,87 %
24.11.2022 06:38 9,1 C 8,3 C 5,0 C 89 % 1006,7 hPa 0,0 l/m 0 min 0 min 0 W/m 25,7 km/h (4 Bft) 97,87 %
24.11.2022 06:40 9,1 C 8,3 C 5,0 C 89 % 1006,8 hPa 0,0 l/m 0 min 0 min 0 W/m 19,3 km/h (3 Bft) 97,83 %
24.11.2022 06:42 9,0 C 8,3 C 5,0 C 89 % 1006,8 hPa 0,0 l/m 0 min 0 min 0 W/m 25,7 km/h (4 Bft) 95,74 %
24.11.2022 06:44 9,0 C 8,3 C 5,0 C 89 % 1006,8 hPa 0,0 l/m 0 min 0 min 0 W/m 29,0 km/h (5 Bft) 95,74 %
24.11.2022 06:46 8,9 C 8,3 C 5,0 C 89 % 1006,8 hPa 0,0 l/m 0 min 0 min 0 W/m 19,3 km/h (3 Bft) 97,87 %
24.11.2022 06:48 8,9 C 8,3 C 5,0 C 89 % 1006,8 hPa 0,0 l/m 0 min 0 min 0 W/m 32,2 km/h (5 Bft) 100,00 %
24.11.2022 06:50 8,9 C 8,3 C 5,0 C 89 % 1006,9 hPa 0,0 l/m 0 min 0 min 0 W/m 16,1 km/h (3 Bft) 97,87 %
24.11.2022 06:52 8,9 C 8,3 C 5,0 C 89 % 1006,9 hPa 0,0 l/m 0 min 0 min 0 W/m 22,5 km/h (4 Bft) 95,65 %
24.11.2022 06:54 8,9 C 8,3 C 5,0 C 89 % 1006,9 hPa 0,0 l/m 0 min 0 min 0 W/m 32,2 km/h (5 Bft) 97,87 %
24.11.2022 06:56 8,9 C 8,3 C 5,0 C 89 % 1007,0 hPa 0,0 l/m 0 min 0 min 0 W/m 29,0 km/h (5 Bft) 97,87 %
24.11.2022 06:58 8,9 C 8,3 C 5,0 C 89 % 1007,0 hPa 0,0 l/m 0 min 0 min 0 W/m 35,4 km/h (5 Bft) 95,74 %
24.11.2022 07:00 8,9 C 8,3 C 5,0 C 89 % 1007,1 hPa 0,0 l/m 0 min 0 min 0 W/m 19,3 km/h (3 Bft) 93,62 %
24.11.2022 07:02 8,9 C 7,8 C 5,0 C 89 % 1007,1 hPa 0,0 l/m 0 min 0 min 0 W/m 19,3 km/h (3 Bft) 91,49 %
24.11.2022 07:04 8,9 C 7,8 C 5,0 C 89 % 1007,1 hPa 0,0 l/m 0 min 0 min 0 W/m 19,3 km/h (3 Bft) 95,74 %
24.11.2022 07:06 8,8 C 7,8 C 5,0 C 89 % 1007,1 hPa 0,0 l/m 0 min 0 min 0 W/m 22,5 km/h (4 Bft) 95,74 %
24.11.2022 07:08 8,8 C 7,8 C 5,0 C 89 % 1007,1 hPa 0,0 l/m 0 min 0 min 0 W/m 16,1 km/h (3 Bft) 95,74 %
24.11.2022 07:10 8,8 C 7,8 C 5,0 C 89 % 1007,1 hPa 0,0 l/m 0 min 0 min 0 W/m 19,3 km/h (3 Bft) 95,74 %
24.11.2022 07:12 8,8 C 7,8 C 5,0 C 89 % 1007,1 hPa 0,0 l/m 0 min 0 min 0 W/m 16,1 km/h (3 Bft) 95,74 %
24.11.2022 07:14 8,8 C 7,8 C 5,0 C 89 % 1007,1 hPa 0,0 l/m 0 min 0 min 0 W/m 19,3 km/h (3 Bft) 93,62 %
24.11.2022 07:16 8,8 C 7,8 C 5,0 C 89 % 1007,2 hPa 0,0 l/m 0 min 0 min 0 W/m 16,1 km/h (3 Bft) 93,48 %
24.11.2022 07:18 8,7 C 7,8 C 5,0 C 89 % 1007,2 hPa 0,0 l/m 0 min 0 min 0 W/m 19,3 km/h (3 Bft) 93,62 %
24.11.2022 07:20 8,7 C 7,8 C 5,0 C 89 % 1007,2 hPa 0,0 l/m 0 min 0 min 0 W/m 22,5 km/h (4 Bft) 95,74 %
24.11.2022 07:22 8,7 C 7,8 C 5,0 C 89 % 1007,2 hPa 0,0 l/m 0 min 0 min 0 W/m 19,3 km/h (3 Bft) 93,62 %
24.11.2022 07:24 8,7 C 7,8 C 5,0 C 89 % 1007,3 hPa 0,0 l/m 0 min 0 min 0 W/m 12,9 km/h (3 Bft) 95,74 %
24.11.2022 07:26 8,7 C 7,8 C 5,0 C 89 % 1007,3 hPa 0,0 l/m 0 min 0 min 0 W/m 22,5 km/h (4 Bft) 95,74 %
24.11.2022 07:28 8,6 C 7,8 C 5,0 C 89 % 1007,5 hPa 0,0 l/m 0 min 0 min 0 W/m 19,3 km/h (3 Bft) 95,65 %
24.11.2022 07:30 8,6 C 7,8 C 5,0 C 89 % 1007,5 hPa 0,0 l/m 0 min 0 min 0 W/m 25,7 km/h (4 Bft) 97,87 %
24.11.2022 07:32 8,6 C 7,8 C 5,0 C 89 % 1007,6 hPa 0,0 l/m 0 min 0 min 0 W/m 16,1 km/h (3 Bft) 97,87 %
24.11.2022 07:34 8,6 C 7,8 C 4,4 C 89 % 1007,5 hPa 0,0 l/m 0 min 0 min 0 W/m 19,3 km/h (3 Bft) 97,87 %
24.11.2022 07:36 8,6 C 7,8 C 4,4 C 89 % 1007,6 hPa 0,0 l/m 0 min 0 min 0 W/m 19,3 km/h (3 Bft) 97,87 %
24.11.2022 07:38 8,6 C 7,8 C 4,4 C 89 % 1007,5 hPa 0,0 l/m 0 min 0 min 0 W/m 22,5 km/h (4 Bft) 97,87 %
24.11.2022 07:40 8,6 C 7,8 C 5,0 C 89 % 1007,6 hPa 0,0 l/m 0 min 0 min 0 W/m 12,9 km/h (3 Bft) 97,83 %
24.11.2022 07:42 8,6 C 7,8 C 4,4 C 89 % 1007,6 hPa 0,0 l/m 0 min 0 min 0 W/m 19,3 km/h (3 Bft) 100,00 %
24.11.2022 07:44 8,5 C 7,8 C 4,4 C 89 % 1007,6 hPa 0,0 l/m 0 min 0 min 0 W/m 16,1 km/h (3 Bft) 97,87 %
24.11.2022 07:46 8,5 C 7,8 C 4,4 C 89 % 1007,6 hPa 0,0 l/m 0 min 0 min 0 W/m 16,1 km/h (3 Bft) 97,87 %
24.11.2022 07:48 8,5 C 7,8 C 4,4 C 89 % 1007,7 hPa 0,0 l/m 0 min 0 min 0 W/m 22,5 km/h (4 Bft) 100,00 %
24.11.2022 07:50 8,5 C 7,8 C 5,0 C 88 % 1007,7 hPa 0,0 l/m 0 min 0 min 0 W/m 32,2 km/h (5 Bft) 100,00 %
24.11.2022 07:52 8,5 C 7,8 C 4,4 C 88 % 1007,8 hPa 0,0 l/m 0 min 0 min 0 W/m 12,9 km/h (3 Bft) 97,83 %
24.11.2022 07:54 8,4 C 7,8 C 4,4 C 88 % 1007,9 hPa 0,0 l/m 0 min 0 min 0 W/m 29,0 km/h (5 Bft) 100,00 %
24.11.2022 07:56 8,4 C 7,8 C 4,4 C 88 % 1007,9 hPa 0,0 l/m 0 min 0 min 0 W/m 12,9 km/h (3 Bft) 100,00 %
24.11.2022 07:58 8,4 C 7,2 C 4,4 C 88 % 1007,9 hPa 0,0 l/m 0 min 0 min 0 W/m 22,5 km/h (4 Bft) 100,00 %
24.11.2022 08:00 8,4 C 7,2 C 4,4 C 88 % 1008,0 hPa 0,0 l/m 0 min 0 min 0 W/m 12,9 km/h (3 Bft) 97,87 %
24.11.2022 08:02 8,3 C 7,2 C 4,4 C 88 % 1008,0 hPa 0,0 l/m 0 min 0 min 0 W/m 16,1 km/h (3 Bft) 97,83 %
24.11.2022 08:04 8,3 C 7,8 C 4,4 C 88 % 1008,0 hPa 0,0 l/m 0 min 0 min 0 W/m 19,3 km/h (3 Bft) 52,38 %
24.11.2022 08:06 8,3 C 7,8 C 4,4 C 88 % 1008,1 hPa 0,0 l/m 0 min 0 min 0 W/m 29,0 km/h (5 Bft) 100,00 %
24.11.2022 08:08 8,3 C 7,8 C 4,4 C 88 % 1008,1 hPa 0,0 l/m 0 min 0 min 0 W/m 29,0 km/h (5 Bft) 100,00 %
24.11.2022 08:10 8,3 C 7,8 C 4,4 C 88 % 1008,1 hPa 0,0 l/m 0 min 0 min 0 W/m 12,9 km/h (3 Bft) 100,00 %
24.11.2022 08:12 8,3 C 7,8 C 4,4 C 88 % 1008,2 hPa 0,0 l/m 0 min 0 min 2 W/m 16,1 km/h (3 Bft) 100,00 %
24.11.2022 08:14 8,3 C 7,8 C 4,4 C 88 % 1008,2 hPa 0,0 l/m 0 min 0 min 5 W/m 16,1 km/h (3 Bft) 100,00 %
24.11.2022 08:16 8,3 C 7,8 C 4,4 C 88 % 1008,2 hPa 0,0 l/m 0 min 0 min 1 W/m 19,3 km/h (3 Bft) 95,74 %
24.11.2022 08:18 8,3 C 7,8 C 4,4 C 88 % 1008,2 hPa 0,0 l/m 0 min 0 min 0 W/m 25,7 km/h (4 Bft) 100,00 %
24.11.2022 08:20 8,3 C 7,8 C 4,4 C 88 % 1008,3 hPa 0,0 l/m 0 min 0 min 0 W/m 19,3 km/h (3 Bft) 100,00 %
24.11.2022 08:22 8,3 C 7,8 C 4,4 C 88 % 1008,3 hPa 0,0 l/m 0 min 0 min 0 W/m 12,9 km/h (3 Bft) 100,00 %
24.11.2022 08:24 8,3 C 7,8 C 4,4 C 88 % 1008,4 hPa 0,0 l/m 0 min 0 min 0 W/m 16,1 km/h (3 Bft) 100,00 %
24.11.2022 08:26 8,3 C 7,8 C 4,4 C 88 % 1008,5 hPa 0,0 l/m 0 min 0 min 0 W/m 25,7 km/h (4 Bft) 100,00 %
24.11.2022 08:28 8,3 C 7,8 C 4,4 C 88 % 1008,5 hPa 0,0 l/m 0 min 0 min 0 W/m 16,1 km/h (3 Bft) 100,00 %
24.11.2022 08:30 8,3 C 7,8 C 4,4 C 88 % 1008,5 hPa 0,0 l/m 0 min 0 min 0 W/m 16,1 km/h (3 Bft) 100,00 %
24.11.2022 08:32 8,3 C 7,8 C 4,4 C 88 % 1008,6 hPa 0,0 l/m 0 min 0 min 0 W/m 12,9 km/h (3 Bft) 93,62 %
24.11.2022 08:34 8,3 C 7,8 C 4,4 C 88 % 1008,6 hPa 0,0 l/m 0 min 0 min 1 W/m 22,5 km/h (4 Bft) 100,00 %
24.11.2022 08:36 8,3 C 7,8 C 4,4 C 88 % 1008,7 hPa 0,0 l/m 0 min 0 min 1 W/m 22,5 km/h (4 Bft) 100,00 %
24.11.2022 08:38 8,3 C 7,8 C 4,4 C 88 % 1008,7 hPa 0,0 l/m 0 min 0 min 0 W/m 19,3 km/h (3 Bft) 100,00 %
24.11.2022 08:40 8,3 C 7,8 C 4,4 C 88 % 1008,7 hPa 0,0 l/m 0 min 0 min 4 W/m 12,9 km/h (3 Bft) 100,00 %
24.11.2022 08:42 8,3 C 7,8 C 4,4 C 88 % 1008,8 hPa 0,0 l/m 0 min 0 min 7 W/m 9,7 km/h (2 Bft) 97,87 %
24.11.2022 08:44 8,3 C 7,8 C 4,4 C 88 % 1008,8 hPa 0,0 l/m 0 min 0 min 9 W/m 16,1 km/h (3 Bft) 100,00 %
24.11.2022 08:46 8,3 C 7,8 C 4,4 C 88 % 1008,9 hPa 0,0 l/m 0 min 0 min 11 W/m 19,3 km/h (3 Bft) 93,62 %
24.11.2022 08:48 8,3 C 7,8 C 5,0 C 88 % 1008,9 hPa 0,0 l/m 0 min 0 min 13 W/m 12,9 km/h (3 Bft) 100,00 %
24.11.2022 08:50 8,3 C 7,8 C 5,0 C 88 % 1008,9 hPa 0,0 l/m 0 min 0 min 14 W/m 12,9 km/h (3 Bft) 97,83 %
24.11.2022 08:52 8,3 C 7,8 C 5,0 C 88 % 1009,0 hPa 0,0 l/m 0 min 0 min 18 W/m 12,9 km/h (3 Bft) 97,87 %
24.11.2022 08:54 8,3 C 7,8 C 5,0 C 88 % 1009,0 hPa 0,0 l/m 0 min 0 min 22 W/m 12,9 km/h (3 Bft) 95,74 %
24.11.2022 08:56 8,3 C 7,8 C 5,0 C 88 % 1009,1 hPa 0,0 l/m 0 min 0 min 19 W/m 12,9 km/h (3 Bft) 93,62 %
24.11.2022 08:58 8,3 C 7,8 C 5,0 C 88 % 1009,1 hPa 0,0 l/m 0 min 0 min 24 W/m 12,9 km/h (3 Bft) 93,62 %
24.11.2022 09:00 8,3 C 7,8 C 5,0 C 88 % 1009,2 hPa 0,0 l/m 0 min 0 min 26 W/m 29,0 km/h (5 Bft) 97,22 %
24.11.2022 09:02 8,4 C 7,8 C 5,0 C 88 % 1009,2 hPa 0,0 l/m 0 min 0 min 31 W/m 16,1 km/h (3 Bft) 95,74 %
24.11.2022 09:04 8,4 C 7,8 C 5,0 C 88 % 1009,2 hPa 0,0 l/m 0 min 0 min 30 W/m 16,1 km/h (3 Bft) 91,84 %
24.11.2022 09:06 8,4 C 7,8 C 5,0 C 88 % 1009,3 hPa 0,0 l/m 0 min 0 min 32 W/m 12,9 km/h (3 Bft) 95,74 %
24.11.2022 09:08 8,4 C 7,8 C 5,0 C 88 % 1009,3 hPa 0,0 l/m 0 min 0 min 32 W/m 32,2 km/h (5 Bft) 93,62 %
24.11.2022 09:10 8,4 C 7,8 C 5,0 C 88 % 1009,4 hPa 0,0 l/m 0 min 0 min 26 W/m 16,1 km/h (3 Bft) 95,74 %
24.11.2022 09:12 8,4 C 7,8 C 5,0 C 88 % 1009,4 hPa 0,0 l/m 0 min 0 min 28 W/m 19,3 km/h (3 Bft) 95,74 %
24.11.2022 09:14 8,4 C 7,8 C 5,0 C 89 % 1009,4 hPa 0,0 l/m 0 min 0 min 28 W/m 22,5 km/h (4 Bft) 95,74 %
24.11.2022 09:16 8,5 C 7,8 C 5,0 C 89 % 1009,4 hPa 0,0 l/m 0 min 0 min 30 W/m 22,5 km/h (4 Bft) 93,48 %
24.11.2022 09:18 8,5 C 7,8 C 5,0 C 89 % 1009,5 hPa 0,0 l/m 0 min 0 min 37 W/m 9,7 km/h (2 Bft) 93,62 %
24.11.2022 09:20 8,5 C 7,8 C 5,0 C 89 % 1009,5 hPa 0,0 l/m 0 min 0 min 37 W/m 12,9 km/h (3 Bft) 93,62 %
24.11.2022 09:22 8,5 C 7,8 C 5,0 C 89 % 1009,5 hPa 0,0 l/m 0 min 0 min 41 W/m 29,0 km/h (5 Bft) 95,74 %
24.11.2022 09:24 8,6 C 7,8 C 5,0 C 89 % 1009,5 hPa 0,0 l/m 0 min 0 min 47 W/m 16,1 km/h (3 Bft) 97,87 %
24.11.2022 09:26 8,6 C 7,8 C 5,0 C 89 % 1009,5 hPa 0,0 l/m 0 min 0 min 37 W/m 6,4 km/h (2 Bft) 97,87 %
24.11.2022 09:28 8,6 C 7,8 C 5,0 C 89 % 1009,6 hPa 0,0 l/m 0 min 0 min 36 W/m 16,1 km/h (3 Bft) 95,65 %
24.11.2022 09:30 8,6 C 7,8 C 5,0 C 89 % 1009,7 hPa 0,0 l/m 0 min 0 min 45 W/m 29,0 km/h (5 Bft) 91,49 %
24.11.2022 09:32 8,6 C 7,8 C 5,0 C 89 % 1009,7 hPa 0,0 l/m 0 min 0 min 45 W/m 35,4 km/h (5 Bft) 93,62 %
24.11.2022 09:34 8,6 C 7,8 C 5,0 C 89 % 1009,7 hPa 0,0 l/m 0 min 0 min 32 W/m 16,1 km/h (3 Bft) 93,62 %
24.11.2022 09:36 8,6 C 7,8 C 5,0 C 89 % 1009,8 hPa 0,0 l/m 0 min 0 min 29 W/m 9,7 km/h (2 Bft) 51,11 %
24.11.2022 09:38 8,6 C 7,8 C 5,0 C 89 % 1009,8 hPa 0,0 l/m 0 min 0 min 39 W/m 16,1 km/h (3 Bft) 91,49 %
24.11.2022 09:40 8,6 C 7,8 C 5,0 C 89 % 1009,8 hPa 0,0 l/m 0 min 0 min 41 W/m 6,4 km/h (2 Bft) 97,83 %
24.11.2022 09:42 8,6 C 7,8 C 5,0 C 89 % 1009,8 hPa 0,0 l/m 0 min 0 min 35 W/m 12,9 km/h (3 Bft) 93,62 %
24.11.2022 09:44 8,6 C 7,8 C 5,0 C 89 % 1009,9 hPa 0,0 l/m 0 min 0 min 37 W/m 12,9 km/h (3 Bft) 95,74 %
24.11.2022 09:46 8,6 C 7,8 C 5,0 C 89 % 1009,9 hPa 0,0 l/m 0 min 0 min 43 W/m 12,9 km/h (3 Bft) 95,74 %
24.11.2022 09:48 8,6 C 7,8 C 5,0 C 89 % 1010,0 hPa 0,0 l/m 0 min 0 min 59 W/m 22,5 km/h (4 Bft) 98,11 %
24.11.2022 09:50 8,6 C 8,3 C 5,0 C 89 % 1009,9 hPa 0,0 l/m 0 min 0 min 78 W/m 22,5 km/h (4 Bft) 97,87 %
24.11.2022 09:52 8,6 C 8,3 C 5,0 C 89 % 1010,1 hPa 0,0 l/m 0 min 0 min 81 W/m 6,4 km/h (2 Bft) 95,74 %
24.11.2022 09:54 8,6 C 8,3 C 5,0 C 89 % 1010,1 hPa 0,0 l/m 0 min 0 min 64 W/m 19,3 km/h (3 Bft) 95,74 %
24.11.2022 09:56 8,6 C 8,3 C 5,0 C 89 % 1010,1 hPa 0,0 l/m 0 min 0 min 57 W/m 16,1 km/h (3 Bft) 97,87 %
24.11.2022 09:58 8,6 C 8,3 C 5,0 C 89 % 1010,2 hPa 0,0 l/m 0 min 0 min 66 W/m 19,3 km/h (3 Bft) 97,87 %
24.11.2022 10:00 8,6 C 8,3 C 5,0 C 90 % 1010,1 hPa 0,0 l/m 0 min 0 min 78 W/m 12,9 km/h (3 Bft) 97,87 %
24.11.2022 10:02 8,7 C 8,3 C 5,6 C 89 % 1010,2 hPa 0,0 l/m 0 min 0 min 94 W/m 19,3 km/h (3 Bft) 97,83 %
24.11.2022 10:04 8,7 C 8,3 C 5,6 C 89 % 1010,2 hPa 0,0 l/m 0 min 0 min 76 W/m 19,3 km/h (3 Bft) 97,67 %
24.11.2022 10:06 8,7 C 8,3 C 5,6 C 90 % 1010,2 hPa 0,0 l/m 0 min 0 min 62 W/m 12,9 km/h (3 Bft) 95,74 %
24.11.2022 10:08 8,7 C 8,3 C 5,6 C 89 % 1010,2 hPa 0,0 l/m 0 min 0 min 44 W/m 12,9 km/h (3 Bft) 97,87 %
24.11.2022 10:10 8,7 C 8,3 C 5,0 C 89 % 1010,3 hPa 0,0 l/m 0 min 0 min 35 W/m 16,1 km/h (3 Bft) 97,87 %
24.11.2022 10:12 8,7 C 8,3 C 5,0 C 89 % 1010,3 hPa 0,0 l/m 0 min 0 min 45 W/m 12,9 km/h (3 Bft) 100,00 %
24.11.2022 10:14 8,7 C 8,3 C 5,0 C 89 % 1010,4 hPa 0,0 l/m 0 min 0 min 66 W/m 19,3 km/h (3 Bft) 100,00 %
24.11.2022 10:16 8,7 C 8,3 C 5,0 C 89 % 1010,4 hPa 0,0 l/m 0 min 0 min 82 W/m 16,1 km/h (3 Bft) 95,74 %
24.11.2022 10:18 8,7 C 8,3 C 5,0 C 89 % 1010,4 hPa 0,0 l/m 0 min 0 min 114 W/m 12,9 km/h (3 Bft) 97,87 %
24.11.2022 10:20 8,7 C 8,9 C 5,6 C 90 % 1010,5 hPa 0,0 l/m 2 min 0 min 134 W/m 6,4 km/h (2 Bft) 97,87 %
24.11.2022 10:22 8,8 C 8,9 C 5,6 C 90 % 1010,3 hPa 0,0 l/m 2 min 0 min 214 W/m 12,9 km/h (3 Bft) 100,00 %
24.11.2022 10:24 8,8 C 8,9 C 5,6 C 90 % 1010,4 hPa 0,0 l/m 2 min 0 min 192 W/m 19,3 km/h (3 Bft) 97,87 %
24.11.2022 10:26 8,9 C 8,9 C 5,6 C 90 % 1010,4 hPa 0,0 l/m 0 min 0 min 88 W/m 12,9 km/h (3 Bft) 100,00 %
24.11.2022 10:28 8,9 C 8,9 C 5,6 C 89 % 1010,4 hPa 0,0 l/m 2 min 0 min 212 W/m 19,3 km/h (3 Bft) 97,87 %
24.11.2022 10:30 9,0 C 8,9 C 5,6 C 89 % 1010,5 hPa 0,0 l/m 2 min 0 min 223 W/m 16,1 km/h (3 Bft) 97,87 %
24.11.2022 10:32 9,1 C 8,9 C 5,6 C 89 % 1010,5 hPa 0,0 l/m 2 min 0 min 215 W/m 19,3 km/h (3 Bft) 100,00 %
24.11.2022 10:34 9,1 C 8,9 C 5,6 C 89 % 1010,5 hPa 0,0 l/m 2 min 0 min 211 W/m 22,5 km/h (4 Bft) 100,00 %
24.11.2022 10:36 9,2 C 8,9 C 5,6 C 89 % 1010,6 hPa 0,0 l/m 2 min 0 min 185 W/m 6,4 km/h (2 Bft) 97,87 %
24.11.2022 10:38 9,2 C 8,9 C 5,6 C 89 % 1010,7 hPa 0,0 l/m 2 min 0 min 189 W/m 12,9 km/h (3 Bft) 97,83 %
24.11.2022 10:40 9,2 C 8,9 C 5,6 C 89 % 1010,6 hPa 0,0 l/m 0 min 0 min 123 W/m 16,1 km/h (3 Bft) 100,00 %
24.11.2022 10:42 9,3 C 8,9 C 5,6 C 88 % 1010,6 hPa 0,0 l/m 0 min 0 min 92 W/m 9,7 km/h (2 Bft) 97,87 %
24.11.2022 10:44 9,3 C 8,9 C 5,6 C 88 % 1010,7 hPa 0,0 l/m 0 min 0 min 75 W/m 9,7 km/h (2 Bft) 97,87 %
24.11.2022 10:46 9,3 C 8,9 C 5,6 C 88 % 1010,7 hPa 0,0 l/m 0 min 0 min 100 W/m 16,1 km/h (3 Bft) 100,00 %
24.11.2022 10:48 9,3 C 8,9 C 5,6 C 88 % 1010,7 hPa 0,0 l/m 0 min 0 min 89 W/m 19,3 km/h (3 Bft) 95,74 %
24.11.2022 10:50 9,3 C 8,9 C 5,6 C 88 % 1010,7 hPa 0,0 l/m 0 min 0 min 107 W/m 16,1 km/h (3 Bft) 100,00 %
24.11.2022 10:52 9,3 C 8,9 C 5,6 C 88 % 1010,8 hPa 0,0 l/m 0 min 0 min 59 W/m 19,3 km/h (3 Bft) 100,00 %
24.11.2022 10:54 9,3 C 8,9 C 5,6 C 88 % 1010,8 hPa 0,0 l/m 0 min 0 min 66 W/m 19,3 km/h (3 Bft) 97,87 %
24.11.2022 10:56 9,3 C 8,9 C 5,6 C 88 % 1010,8 hPa 0,0 l/m 0 min 0 min 56 W/m 16,1 km/h (3 Bft) 95,74 %
24.11.2022 10:58 9,3 C 8,9 C 5,6 C 88 % 1010,8 hPa 0,0 l/m 0 min 0 min 66 W/m 16,1 km/h (3 Bft) 97,87 %
24.11.2022 11:00 9,4 C 8,9 C 5,6 C 88 % 1010,8 hPa 0,0 l/m 0 min 0 min 83 W/m 16,1 km/h (3 Bft) 95,74 %
24.11.2022 11:02 9,4 C 8,9 C 5,6 C 88 % 1010,9 hPa 0,0 l/m 0 min 0 min 53 W/m 12,9 km/h (3 Bft) 95,12 %
24.11.2022 11:04 9,4 C 8,9 C 5,6 C 88 % 1010,9 hPa 0,0 l/m 0 min 0 min 46 W/m 25,7 km/h (4 Bft) 97,92 %
24.11.2022 11:06 9,5 C 8,9 C 5,6 C 88 % 1010,9 hPa 0,0 l/m 0 min 0 min 46 W/m 12,9 km/h (3 Bft) 94,92 %
24.11.2022 11:08 9,4 C 8,9 C 5,6 C 88 % 1010,9 hPa 0,0 l/m 0 min 0 min 46 W/m 12,9 km/h (3 Bft) 97,14 %
24.11.2022 11:10 9,5 C 9,4 C 5,6 C 88 % 1011,0 hPa 0,0 l/m 0 min 0 min 47 W/m 9,7 km/h (2 Bft) 97,87 %
24.11.2022 11:12 9,5 C 9,4 C 5,6 C 88 % 1011,0 hPa 0,0 l/m 0 min 0 min 49 W/m 19,3 km/h (3 Bft) 95,74 %
24.11.2022 11:14 9,6 C 9,4 C 5,6 C 87 % 1011,0 hPa 0,0 l/m 0 min 0 min 47 W/m 25,7 km/h (4 Bft) 97,87 %
24.11.2022 11:16 9,5 C 8,9 C 5,6 C 87 % 1011,0 hPa 0,0 l/m 0 min 0 min 54 W/m 19,3 km/h (3 Bft) 93,48 %
24.11.2022 11:18 9,6 C 9,4 C 5,6 C 87 % 1011,0 hPa 0,0 l/m 0 min 0 min 46 W/m 16,1 km/h (3 Bft) 95,74 %
24.11.2022 11:20 9,6 C 9,4 C 5,6 C 87 % 1011,0 hPa 0,0 l/m 0 min 0 min 45 W/m 12,9 km/h (3 Bft) 95,74 %
24.11.2022 11:22 9,6 C 9,4 C 5,6 C 87 % 1011,1 hPa 0,0 l/m 0 min 0 min 47 W/m 22,5 km/h (4 Bft) 95,74 %
24.11.2022 11:24 9,6 C 9,4 C 6,1 C 87 % 1011,1 hPa 0,0 l/m 0 min 0 min 52 W/m 19,3 km/h (3 Bft) 91,49 %
24.11.2022 11:26 9,6 C 9,4 C 6,1 C 87 % 1011,0 hPa 0,0 l/m 0 min 0 min 50 W/m 25,7 km/h (4 Bft) 95,65 %
24.11.2022 11:28 9,6 C 9,4 C 6,1 C 87 % 1011,1 hPa 0,0 l/m 0 min 0 min 49 W/m 16,1 km/h (3 Bft) 97,87 %
24.11.2022 11:30 9,6 C 9,4 C 6,1 C 87 % 1011,1 hPa 0,0 l/m 0 min 0 min 47 W/m 16,1 km/h (3 Bft) 93,62 %
24.11.2022 11:32 9,6 C 9,4 C 6,1 C 87 % 1011,1 hPa 0,0 l/m 0 min 0 min 49 W/m 9,7 km/h (2 Bft) 95,74 %
24.11.2022 11:34 9,7 C 9,4 C 6,1 C 87 % 1011,1 hPa 0,0 l/m 0 min 0 min 49 W/m 12,9 km/h (3 Bft) 97,87 %
24.11.2022 11:36 9,7 C 9,4 C 6,1 C 87 % 1011,2 hPa 0,0 l/m 0 min 0 min 47 W/m 9,7 km/h (2 Bft) 97,87 %
24.11.2022 11:38 9,7 C 9,4 C 6,1 C 87 % 1011,2 hPa 0,0 l/m 0 min 0 min 48 W/m 12,9 km/h (3 Bft) 97,87 %
24.11.2022 11:40 9,7 C 9,4 C 6,1 C 87 % 1011,2 hPa 0,0 l/m 0 min 0 min 49 W/m 19,3 km/h (3 Bft) 95,65 %
24.11.2022 11:42 9,8 C 9,4 C 6,1 C 87 % 1011,2 hPa 0,0 l/m 0 min 0 min 49 W/m 19,3 km/h (3 Bft) 95,74 %
24.11.2022 11:44 9,8 C 9,4 C 6,1 C 87 % 1011,3 hPa 0,0 l/m 0 min 0 min 53 W/m 12,9 km/h (3 Bft) 97,87 %
24.11.2022 11:46 9,8 C 9,4 C 6,1 C 87 % 1011,4 hPa 0,0 l/m 0 min 0 min 53 W/m 22,5 km/h (4 Bft) 97,87 %
24.11.2022 11:48 9,8 C 9,4 C 6,1 C 87 % 1011,3 hPa 0,0 l/m 0 min 0 min 47 W/m 16,1 km/h (3 Bft) 97,87 %
24.11.2022 11:50 9,8 C 9,4 C 6,1 C 87 % 1011,2 hPa 0,0 l/m 0 min 0 min 46 W/m 6,4 km/h (2 Bft) 97,83 %
24.11.2022 11:52 9,9 C 9,4 C 6,1 C 87 % 1011,3 hPa 0,0 l/m 0 min 0 min 46 W/m 12,9 km/h (3 Bft) 97,87 %
24.11.2022 11:54 9,9 C 9,4 C 6,1 C 87 % 1011,2 hPa 0,0 l/m 0 min 0 min 46 W/m 12,9 km/h (3 Bft) 97,87 %
24.11.2022 11:56 9,9 C 9,4 C 6,1 C 86 % 1011,4 hPa 0,0 l/m 0 min 0 min 46 W/m 12,9 km/h (3 Bft) 95,74 %
24.11.2022 11:58 9,9 C 9,4 C 6,1 C 87 % 1011,3 hPa 0,0 l/m 0 min 0 min 46 W/m 12,9 km/h (3 Bft) 95,74 %
24.11.2022 12:00 10,0 C 9,4 C 6,1 C 86 % 1011,3 hPa 0,0 l/m 0 min 0 min 46 W/m 16,1 km/h (3 Bft) 97,87 %
24.11.2022 12:02 10,0 C 10,0 C 6,1 C 86 % 1011,4 hPa 0,0 l/m 0 min 0 min 47 W/m 19,3 km/h (3 Bft) 95,74 %
24.11.2022 12:04 10,1 C 10,0 C 6,1 C 86 % 1011,4 hPa 0,0 l/m 0 min 0 min 47 W/m 22,5 km/h (4 Bft) 95,74 %
24.11.2022 12:08 10,1 C 10,0 C 6,1 C 86 % 1011,3 hPa 0,0 l/m 0 min 0 min 48 W/m 22,5 km/h (4 Bft) 96,91 %
24.11.2022 12:10 10,1 C 10,0 C 6,1 C 86 % 1011,3 hPa 0,0 l/m 0 min 0 min 48 W/m 22,5 km/h (4 Bft) 97,87 %
24.11.2022 12:12 10,1 C 10,0 C 6,1 C 86 % 1011,4 hPa 0,0 l/m 0 min 0 min 47 W/m 12,9 km/h (3 Bft) 100,00 %
24.11.2022 12:14 10,2 C 10,0 C 6,1 C 86 % 1011,5 hPa 0,0 l/m 0 min 0 min 47 W/m 16,1 km/h (3 Bft) 91,30 %
24.11.2022 12:16 10,2 C 10,0 C 6,7 C 86 % 1011,4 hPa 0,0 l/m 0 min 0 min 47 W/m 16,1 km/h (3 Bft) 100,00 %
24.11.2022 12:18 10,2 C 10,0 C 6,7 C 86 % 1011,5 hPa 0,0 l/m 0 min 0 min 49 W/m 12,9 km/h (3 Bft) 100,00 %
24.11.2022 12:20 10,2 C 10,0 C 6,7 C 86 % 1011,4 hPa 0,0 l/m 0 min 0 min 49 W/m 16,1 km/h (3 Bft) 100,00 %
24.11.2022 12:22 10,3 C 10,0 C 6,7 C 85 % 1011,5 hPa 0,0 l/m 0 min 0 min 52 W/m 22,5 km/h (4 Bft) 95,74 %
24.11.2022 12:24 10,3 C 10,0 C 6,7 C 86 % 1011,5 hPa 0,0 l/m 0 min 0 min 53 W/m 16,1 km/h (3 Bft) 95,65 %
24.11.2022 12:26 10,3 C 10,0 C 6,7 C 86 % 1011,6 hPa 0,0 l/m 0 min 0 min 54 W/m 16,1 km/h (3 Bft) 95,74 %
24.11.2022 12:28 10,4 C 10,0 C 6,7 C 85 % 1011,6 hPa 0,0 l/m 0 min 0 min 61 W/m 16,1 km/h (3 Bft) 97,87 %
24.11.2022 12:30 10,4 C 10,0 C 6,7 C 85 % 1011,6 hPa 0,0 l/m 0 min 0 min 56 W/m 6,4 km/h (2 Bft) 97,87 %
24.11.2022 12:32 10,4 C 10,0 C 6,7 C 86 % 1011,6 hPa 0,0 l/m 0 min 0 min 53 W/m 3,2 km/h (1 Bft) 95,74 %
24.11.2022 12:34 10,5 C 10,0 C 6,7 C 86 % 1011,6 hPa 0,0 l/m 0 min 0 min 52 W/m 12,9 km/h (3 Bft) 95,74 %
24.11.2022 12:36 10,5 C 10,0 C 6,7 C 85 % 1011,6 hPa 0,0 l/m 0 min 0 min 49 W/m 19,3 km/h (3 Bft) 97,83 %
24.11.2022 12:38 10,5 C 10,0 C 6,7 C 85 % 1011,6 hPa 0,0 l/m 0 min 0 min 45 W/m 9,7 km/h (2 Bft) 97,87 %
24.11.2022 12:40 10,5 C 10,0 C 6,7 C 85 % 1011,7 hPa 0,0 l/m 0 min 0 min 43 W/m 12,9 km/h (3 Bft) 97,87 %
24.11.2022 12:42 10,6 C 10,0 C 6,7 C 85 % 1011,8 hPa 0,0 l/m 0 min 0 min 46 W/m 6,4 km/h (2 Bft) 97,14 %
24.11.2022 12:44 10,6 C 10,6 C 6,7 C 85 % 1011,7 hPa 0,0 l/m 0 min 0 min 54 W/m 12,9 km/h (3 Bft) 98,46 %
24.11.2022 12:46 10,6 C 10,6 C 6,7 C 85 % 1011,7 hPa 0,0 l/m 0 min 0 min 56 W/m 16,1 km/h (3 Bft) 97,22 %
24.11.2022 12:48 10,6 C 11,1 C 6,7 C 85 % 1011,7 hPa 0,0 l/m 0 min 0 min 57 W/m 12,9 km/h (3 Bft) 95,74 %
24.11.2022 12:50 10,6 C 11,1 C 6,7 C 85 % 1011,7 hPa 0,0 l/m 0 min 0 min 68 W/m 9,7 km/h (2 Bft) 95,65 %
24.11.2022 12:52 10,7 C 11,1 C 6,7 C 85 % 1011,7 hPa 0,0 l/m 0 min 0 min 96 W/m 6,4 km/h (2 Bft) 97,87 %
24.11.2022 12:54 10,8 C 11,7 C 6,7 C 85 % 1011,6 hPa 0,0 l/m 0 min 0 min 68 W/m 19,3 km/h (3 Bft) 97,87 %
24.11.2022 12:56 10,8 C 11,7 C 6,7 C 84 % 1011,6 hPa 0,0 l/m 0 min 0 min 68 W/m 16,1 km/h (3 Bft) 97,87 %
24.11.2022 12:58 10,8 C 12,8 C 6,7 C 84 % 1011,6 hPa 0,0 l/m 0 min 0 min 88 W/m 6,4 km/h (2 Bft) 97,87 %
24.11.2022 13:00 10,9 C 13,3 C 6,7 C 84 % 1011,6 hPa 0,0 l/m 0 min 0 min 83 W/m 16,1 km/h (3 Bft) 97,87 %
24.11.2022 13:02 10,9 C 14,4 C 6,7 C 84 % 1011,6 hPa 0,0 l/m 0 min 0 min 125 W/m 16,1 km/h (3 Bft) 95,83 %
24.11.2022 13:04 11,0 C 14,4 C 6,7 C 84 % 1011,6 hPa 0,0 l/m 2 min 0 min 244 W/m 16,1 km/h (3 Bft) 97,67 %
24.11.2022 13:06 11,1 C 13,9 C 6,7 C 83 % 1011,6 hPa 0,0 l/m 2 min 0 min 286 W/m 12,9 km/h (3 Bft) 95,74 %
24.11.2022 13:08 11,1 C 13,3 C 6,7 C 83 % 1011,7 hPa 0,0 l/m 2 min 0 min 289 W/m 12,9 km/h (3 Bft) 97,87 %
24.11.2022 13:10 11,1 C 12,8 C 6,7 C 83 % 1011,6 hPa 0,0 l/m 2 min 0 min 291 W/m 12,9 km/h (3 Bft) 97,87 %
24.11.2022 13:12 11,2 C 12,8 C 6,7 C 83 % 1011,6 hPa 0,0 l/m 2 min 0 min 292 W/m 6,4 km/h (2 Bft) 95,74 %
24.11.2022 13:14 11,2 C 12,2 C 6,7 C 83 % 1011,6 hPa 0,0 l/m 2 min 0 min 294 W/m 16,1 km/h (3 Bft) 97,83 %
24.11.2022 13:16 11,3 C 12,8 C 6,7 C 83 % 1011,6 hPa 0,0 l/m 2 min 0 min 292 W/m 22,5 km/h (4 Bft) 97,87 %
24.11.2022 13:18 11,3 C 12,8 C 6,7 C 82 % 1011,5 hPa 0,0 l/m 2 min 0 min 292 W/m 19,3 km/h (3 Bft) 97,87 %
24.11.2022 13:20 11,3 C 12,8 C 6,7 C 82 % 1011,5 hPa 0,0 l/m 2 min 0 min 292 W/m 16,1 km/h (3 Bft) 95,74 %
24.11.2022 13:22 11,3 C 12,8 C 6,7 C 82 % 1011,6 hPa 0,0 l/m 2 min 0 min 289 W/m 12,9 km/h (3 Bft) 97,87 %
24.11.2022 13:24 11,4 C 12,8 C 6,7 C 82 % 1011,6 hPa 0,0 l/m 2 min 0 min 286 W/m 16,1 km/h (3 Bft) 97,87 %
24.11.2022 13:26 11,4 C 12,8 C 6,7 C 82 % 1011,6 hPa 0,0 l/m 2 min 0 min 283 W/m 6,4 km/h (2 Bft) 97,83 %
24.11.2022 13:28 11,4 C 13,3 C 6,7 C 82 % 1011,6 hPa 0,0 l/m 2 min 0 min 273 W/m 12,9 km/h (3 Bft) 98,11 %
24.11.2022 13:30 11,4 C 13,3 C 6,7 C 82 % 1011,5 hPa 0,0 l/m 2 min 0 min 281 W/m 22,5 km/h (4 Bft) 97,87 %
24.11.2022 13:32 11,5 C 13,3 C 7,2 C 81 % 1011,5 hPa 0,0 l/m 2 min 0 min 278 W/m 25,7 km/h (4 Bft) 97,56 %
24.11.2022 13:34 11,6 C 13,3 C 7,2 C 81 % 1011,5 hPa 0,0 l/m 2 min 0 min 275 W/m 19,3 km/h (3 Bft) 97,87 %
24.11.2022 13:36 11,6 C 13,9 C 7,2 C 81 % 1011,5 hPa 0,0 l/m 2 min 0 min 275 W/m 12,9 km/h (3 Bft) 97,87 %
24.11.2022 13:38 11,6 C 14,4 C 7,2 C 81 % 1011,6 hPa 0,0 l/m 2 min 0 min 273 W/m 6,4 km/h (2 Bft) 97,83 %
24.11.2022 13:40 11,6 C 14,4 C 7,2 C 81 % 1011,6 hPa 0,0 l/m 2 min 0 min 269 W/m 19,3 km/h (3 Bft) 95,74 %
24.11.2022 13:42 11,7 C 13,9 C 6,7 C 81 % 1011,6 hPa 0,0 l/m 2 min 0 min 266 W/m 12,9 km/h (3 Bft) 97,87 %
24.11.2022 13:44 11,7 C 13,9 C 7,2 C 81 % 1011,6 hPa 0,0 l/m 2 min 0 min 262 W/m 16,1 km/h (3 Bft) 100,00 %
24.11.2022 13:46 11,7 C 13,3 C 7,2 C 81 % 1011,6 hPa 0,0 l/m 2 min 0 min 258 W/m 16,1 km/h (3 Bft) 93,62 %
24.11.2022 13:48 11,7 C 12,8 C 6,7 C 80 % 1011,6 hPa 0,0 l/m 2 min 0 min 257 W/m 22,5 km/h (4 Bft) 97,87 %
24.11.2022 13:50 11,7 C 12,8 C 6,7 C 80 % 1011,6 hPa 0,0 l/m 2 min 0 min 254 W/m 22,5 km/h (4 Bft) 97,83 %
24.11.2022 13:52 11,7 C 12,8 C 7,2 C 80 % 1011,6 hPa 0,0 l/m 2 min 0 min 253 W/m 22,5 km/h (4 Bft) 97,87 %
24.11.2022 13:54 11,7 C 12,2 C 7,2 C 80 % 1011,6 hPa 0,0 l/m 2 min 0 min 177 W/m 19,3 km/h (3 Bft) 100,00 %
24.11.2022 13:56 11,7 C 12,2 C 7,2 C 80 % 1011,6 hPa 0,0 l/m 2 min 0 min 145 W/m 25,7 km/h (4 Bft) 100,00 %
24.11.2022 13:58 11,7 C 12,2 C 7,2 C 80 % 1011,6 hPa 0,0 l/m 2 min 0 min 227 W/m 19,3 km/h (3 Bft) 97,87 %
24.11.2022 14:00 11,7 C 12,2 C 6,7 C 80 % 1011,6 hPa 0,0 l/m 2 min 0 min 240 W/m 19,3 km/h (3 Bft) 100,00 %
24.11.2022 14:02 11,7 C 12,2 C 6,7 C 81 % 1011,7 hPa 0,0 l/m 2 min 0 min 238 W/m 16,1 km/h (3 Bft) 100,00 %
24.11.2022 14:04 11,7 C 11,7 C 7,2 C 81 % 1011,7 hPa 0,0 l/m 2 min 0 min 238 W/m 19,3 km/h (3 Bft) 100,00 %
24.11.2022 14:06 11,7 C 11,7 C 7,2 C 81 % 1011,8 hPa 0,0 l/m 2 min 0 min 233 W/m 22,5 km/h (4 Bft) 93,62 %
24.11.2022 14:08 11,7 C 11,7 C 7,2 C 81 % 1011,7 hPa 0,0 l/m 2 min 0 min 232 W/m 19,3 km/h (3 Bft) 95,74 %
24.11.2022 14:10 11,7 C 11,7 C 7,2 C 81 % 1011,8 hPa 0,0 l/m 2 min 0 min 228 W/m 16,1 km/h (3 Bft) 97,87 %
24.11.2022 14:12 11,7 C 11,7 C 7,2 C 81 % 1011,8 hPa 0,0 l/m 2 min 0 min 226 W/m 22,5 km/h (4 Bft) 100,00 %
24.11.2022 14:14 11,6 C 11,7 C 7,2 C 80 % 1011,8 hPa 0,0 l/m 2 min 0 min 221 W/m 22,5 km/h (4 Bft) 97,87 %
24.11.2022 14:16 11,6 C 11,7 C 7,2 C 80 % 1011,8 hPa 0,0 l/m 2 min 0 min 215 W/m 16,1 km/h (3 Bft) 95,74 %
24.11.2022 14:18 11,6 C 11,7 C 7,2 C 81 % 1011,8 hPa 0,0 l/m 2 min 0 min 193 W/m 12,9 km/h (3 Bft) 97,87 %
24.11.2022 14:20 11,6 C 12,2 C 6,7 C 81 % 1011,8 hPa 0,0 l/m 2 min 0 min 192 W/m 12,9 km/h (3 Bft) 97,87 %
24.11.2022 14:22 11,6 C 11,7 C 7,2 C 81 % 1011,8 hPa 0,0 l/m 2 min 0 min 204 W/m 12,9 km/h (3 Bft) 97,87 %
24.11.2022 14:24 11,6 C 11,7 C 6,7 C 81 % 1011,8 hPa 0,0 l/m 2 min 0 min 183 W/m 22,5 km/h (4 Bft) 95,74 %
24.11.2022 14:26 11,6 C 11,7 C 6,7 C 80 % 1011,8 hPa 0,0 l/m 2 min 0 min 137 W/m 19,3 km/h (3 Bft) 95,65 %
24.11.2022 14:28 11,6 C 11,7 C 7,2 C 80 % 1011,9 hPa 0,0 l/m 2 min 0 min 185 W/m 25,7 km/h (4 Bft) 95,74 %
24.11.2022 14:30 11,6 C 11,7 C 7,2 C 80 % 1011,9 hPa 0,0 l/m 2 min 0 min 189 W/m 19,3 km/h (3 Bft) 97,87 %
24.11.2022 14:32 11,6 C 11,7 C 7,2 C 80 % 1011,9 hPa 0,0 l/m 2 min 0 min 161 W/m 19,3 km/h (3 Bft) 97,87 %
24.11.2022 14:34 11,6 C 11,7 C 7,2 C 80 % 1011,9 hPa 0,0 l/m 2 min 0 min 132 W/m 19,3 km/h (3 Bft) 95,74 %
24.11.2022 14:36 11,6 C 12,2 C 7,2 C 81 % 1011,9 hPa 0,0 l/m 2 min 0 min 152 W/m 9,7 km/h (2 Bft) 97,87 %
24.11.2022 14:38 11,6 C 12,2 C 7,2 C 81 % 1011,9 hPa 0,0 l/m 2 min 0 min 165 W/m 9,7 km/h (2 Bft) 97,83 %
24.11.2022 14:40 11,7 C 12,8 C 7,2 C 81 % 1012,0 hPa 0,0 l/m 2 min 0 min 147 W/m 12,9 km/h (3 Bft) 97,87 %
24.11.2022 14:42 11,7 C 13,3 C 7,2 C 81 % 1011,9 hPa 0,0 l/m 2 min 0 min 130 W/m 6,4 km/h (2 Bft) 97,87 %
24.11.2022 14:44 11,7 C 13,3 C 7,2 C 80 % 1011,9 hPa 0,0 l/m 2 min 0 min 148 W/m 16,1 km/h (3 Bft) 97,87 %
24.11.2022 14:46 11,8 C 13,3 C 7,2 C 80 % 1011,9 hPa 0,0 l/m 2 min 0 min 135 W/m 12,9 km/h (3 Bft) 100,00 %
24.11.2022 14:48 11,8 C 12,8 C 7,2 C 80 % 1011,9 hPa 0,0 l/m 2 min 0 min 129 W/m 6,4 km/h (2 Bft) 95,74 %
24.11.2022 14:50 11,8 C 12,2 C 7,2 C 80 % 1011,9 hPa 0,0 l/m 2 min 0 min 117 W/m 16,1 km/h (3 Bft) 97,83 %
24.11.2022 14:52 11,8 C 11,7 C 7,2 C 80 % 1011,9 hPa 0,0 l/m 2 min 0 min 111 W/m 19,3 km/h (3 Bft) 100,00 %
24.11.2022 14:54 11,8 C 11,7 C 6,7 C 80 % 1011,9 hPa 0,0 l/m 2 min 0 min 97 W/m 12,9 km/h (3 Bft) 100,00 %
24.11.2022 14:56 11,8 C 11,1 C 6,7 C 80 % 1011,9 hPa 0,0 l/m 2 min 0 min 121 W/m 12,9 km/h (3 Bft) 97,87 %
24.11.2022 14:58 11,8 C 11,1 C 6,7 C 80 % 1011,9 hPa 0,0 l/m 2 min 0 min 128 W/m 6,4 km/h (2 Bft) 100,00 %
24.11.2022 15:00 11,8 C 11,1 C 7,2 C 80 % 1011,9 hPa 0,0 l/m 2 min 0 min 125 W/m 12,9 km/h (3 Bft) 97,83 %
24.11.2022 15:02 11,8 C 11,1 C 7,2 C 80 % 1011,9 hPa 0,0 l/m 2 min 0 min 111 W/m 16,1 km/h (3 Bft) 100,00 %
24.11.2022 15:04 11,7 C 11,1 C 7,2 C 80 % 1011,9 hPa 0,0 l/m 2 min 0 min 96 W/m 16,1 km/h (3 Bft) 100,00 %
24.11.2022 15:06 11,7 C 11,1 C 7,2 C 79 % 1011,9 hPa 0,0 l/m 0 min 0 min 77 W/m 6,4 km/h (2 Bft) 97,87 %
24.11.2022 15:08 11,7 C 11,1 C 6,7 C 80 % 1011,8 hPa 0,0 l/m 0 min 0 min 54 W/m 6,4 km/h (2 Bft) 95,74 %
24.11.2022 15:10 11,7 C 11,1 C 6,7 C 80 % 1011,8 hPa 0,0 l/m 0 min 0 min 50 W/m 16,1 km/h (3 Bft) 97,87 %
24.11.2022 15:12 11,7 C 11,1 C 6,7 C 80 % 1011,9 hPa 0,0 l/m 0 min 0 min 43 W/m 16,1 km/h (3 Bft) 97,83 %
24.11.2022 15:14 11,7 C 11,1 C 6,7 C 80 % 1011,8 hPa 0,0 l/m 0 min 0 min 44 W/m 16,1 km/h (3 Bft) 97,87 %
24.11.2022 15:16 11,7 C 11,1 C 6,7 C 80 % 1011,9 hPa 0,0 l/m 0 min 0 min 43 W/m 9,7 km/h (2 Bft) 97,87 %
24.11.2022 15:18 11,7 C 11,1 C 6,7 C 80 % 1011,9 hPa 0,0 l/m 0 min 0 min 42 W/m 9,7 km/h (2 Bft) 97,87 %
24.11.2022 15:20 11,6 C 11,1 C 6,7 C 80 % 1011,9 hPa 0,0 l/m 0 min 0 min 42 W/m 12,9 km/h (3 Bft) 97,87 %
24.11.2022 15:22 11,6 C 11,1 C 6,7 C 80 % 1011,9 hPa 0,0 l/m 0 min 0 min 40 W/m 6,4 km/h (2 Bft) 97,87 %
24.11.2022 15:24 11,6 C 11,1 C 6,7 C 80 % 1011,9 hPa 0,0 l/m 0 min 0 min 40 W/m 6,4 km/h (2 Bft) 95,65 %
24.11.2022 15:26 11,6 C 11,1 C 6,7 C 80 % 1011,9 hPa 0,0 l/m 0 min 0 min 40 W/m 16,1 km/h (3 Bft) 95,74 %
24.11.2022 15:28 11,6 C 11,1 C 6,7 C 80 % 1011,9 hPa 0,0 l/m 0 min 0 min 38 W/m 12,9 km/h (3 Bft) 93,62 %
24.11.2022 15:30 11,6 C 10,6 C 6,7 C 80 % 1011,9 hPa 0,0 l/m 0 min 0 min 35 W/m 9,7 km/h (2 Bft) 97,87 %
24.11.2022 15:32 11,6 C 10,6 C 6,7 C 80 % 1011,9 hPa 0,0 l/m 0 min 0 min 33 W/m 12,9 km/h (3 Bft) 97,87 %
24.11.2022 15:34 11,5 C 10,6 C 6,7 C 80 % 1011,8 hPa 0,0 l/m 0 min 0 min 30 W/m 9,7 km/h (2 Bft) 97,87 %
24.11.2022 15:36 11,5 C 10,6 C 6,7 C 80 % 1011,8 hPa 0,0 l/m 0 min 0 min 26 W/m 6,4 km/h (2 Bft) 97,83 %
24.11.2022 15:38 11,4 C 10,6 C 6,7 C 80 % 1011,8 hPa 0,0 l/m 0 min 0 min 27 W/m 6,4 km/h (2 Bft) 97,87 %
24.11.2022 15:40 11,4 C 10,6 C 6,7 C 81 % 1011,7 hPa 0,0 l/m 0 min 0 min 30 W/m 9,7 km/h (2 Bft) 93,62 %
24.11.2022 15:42 11,4 C 10,6 C 6,7 C 81 % 1011,7 hPa 0,0 l/m 0 min 0 min 28 W/m 6,4 km/h (2 Bft) 95,74 %
24.11.2022 15:44 11,3 C 10,6 C 6,7 C 81 % 1011,7 hPa 0,0 l/m 0 min 0 min 23 W/m 6,4 km/h (2 Bft) 100,00 %
24.11.2022 15:46 11,3 C 10,6 C 6,7 C 81 % 1011,7 hPa 0,0 l/m 0 min 0 min 25 W/m 6,4 km/h (2 Bft) 100,00 %
24.11.2022 15:48 11,3 C 10,6 C 6,1 C 81 % 1011,7 hPa 0,0 l/m 0 min 0 min 26 W/m 9,7 km/h (2 Bft) 100,00 %
24.11.2022 15:50 11,2 C 10,0 C 6,1 C 81 % 1011,7 hPa 0,0 l/m 0 min 0 min 25 W/m 12,9 km/h (3 Bft) 95,74 %
24.11.2022 15:52 11,2 C 10,0 C 6,1 C 81 % 1011,8 hPa 0,0 l/m 0 min 0 min 23 W/m 9,7 km/h (2 Bft) 97,87 %
24.11.2022 15:54 11,2 C 10,0 C 6,1 C 81 % 1011,7 hPa 0,0 l/m 0 min 0 min 21 W/m 3,2 km/h (1 Bft) 95,74 %
24.11.2022 15:56 11,2 C 10,0 C 6,1 C 81 % 1011,8 hPa 0,0 l/m 0 min 0 min 20 W/m 6,4 km/h (2 Bft) 97,87 %
24.11.2022 15:58 11,1 C 10,0 C 6,1 C 82 % 1011,8 hPa 0,0 l/m 0 min 0 min 18 W/m 6,4 km/h (2 Bft) 97,87 %
24.11.2022 16:00 11,1 C 10,0 C 6,1 C 82 % 1011,8 hPa 0,0 l/m 0 min 0 min 15 W/m 6,4 km/h (2 Bft) 97,83 %
24.11.2022 16:02 11,1 C 10,0 C 6,1 C 82 % 1011,8 hPa 0,0 l/m 0 min 0 min 14 W/m 6,4 km/h (2 Bft) 97,87 %
24.11.2022 16:04 11,1 C 10,0 C 6,1 C 82 % 1011,8 hPa 0,0 l/m 0 min 0 min 12 W/m 6,4 km/h (2 Bft) 97,96 %
24.11.2022 16:06 11,0 C 9,4 C 5,6 C 82 % 1011,8 hPa 0,0 l/m 0 min 0 min 12 W/m 3,2 km/h (1 Bft) 97,87 %
24.11.2022 16:08 10,9 C 9,4 C 5,6 C 82 % 1011,9 hPa 0,0 l/m 0 min 0 min 12 W/m 9,7 km/h (2 Bft) 97,87 %
24.11.2022 16:10 10,9 C 9,4 C 5,6 C 82 % 1011,9 hPa 0,0 l/m 0 min 0 min 11 W/m 12,9 km/h (3 Bft) 97,83 %
24.11.2022 16:12 10,8 C 9,4 C 5,6 C 82 % 1011,9 hPa 0,0 l/m 0 min 0 min 11 W/m 6,4 km/h (2 Bft) 95,74 %
24.11.2022 16:14 10,8 C 9,4 C 5,6 C 82 % 1012,0 hPa 0,0 l/m 0 min 0 min 10 W/m 9,7 km/h (2 Bft) 97,87 %
24.11.2022 16:16 10,7 C 9,4 C 5,6 C 83 % 1011,9 hPa 0,0 l/m 0 min 0 min 9 W/m 3,2 km/h (1 Bft) 97,87 %
24.11.2022 16:18 10,7 C 9,4 C 5,6 C 83 % 1011,9 hPa 0,0 l/m 0 min 0 min 9 W/m 6,4 km/h (2 Bft) 95,74 %
24.11.2022 16:20 10,7 C 9,4 C 5,6 C 83 % 1011,9 hPa 0,0 l/m 0 min 0 min 9 W/m 3,2 km/h (1 Bft) 97,87 %
24.11.2022 16:22 10,6 C 9,4 C 5,6 C 83 % 1012,0 hPa 0,0 l/m 0 min 0 min 7 W/m 3,2 km/h (1 Bft) 95,74 %
24.11.2022 16:24 10,6 C 9,4 C 5,6 C 83 % 1012,0 hPa 0,0 l/m 0 min 0 min 7 W/m 3,2 km/h (1 Bft) 97,83 %
24.11.2022 16:26 10,6 C 8,9 C 5,6 C 83 % 1012,0 hPa 0,0 l/m 0 min 0 min 7 W/m 3,2 km/h (1 Bft) 100,00 %
24.11.2022 16:28 10,5 C 8,9 C 5,6 C 84 % 1012,0 hPa 0,0 l/m 0 min 0 min 6 W/m 3,2 km/h (1 Bft) 97,87 %
24.11.2022 16:30 10,4 C 8,9 C 5,6 C 84 % 1012,0 hPa 0,0 l/m 0 min 0 min 5 W/m 6,4 km/h (2 Bft) 100,00 %
24.11.2022 16:32 10,3 C 8,9 C 5,6 C 84 % 1011,9 hPa 0,0 l/m 0 min 0 min 5 W/m 3,2 km/h (1 Bft) 100,00 %
24.11.2022 16:34 10,3 C 8,9 C 5,6 C 84 % 1011,9 hPa 0,0 l/m 0 min 0 min 1 W/m 12,9 km/h (3 Bft) 95,65 %
24.11.2022 16:36 10,3 C 8,9 C 5,6 C 84 % 1011,9 hPa 0,0 l/m 0 min 0 min 0 W/m 3,2 km/h (1 Bft) 100,00 %
24.11.2022 16:38 10,2 C 8,9 C 5,0 C 85 % 1011,9 hPa 0,0 l/m 0 min 0 min 0 W/m 0,0 km/h (0 Bft) 97,87 %
24.11.2022 16:40 10,2 C 8,9 C 5,0 C 85 % 1012,0 hPa 0,0 l/m 0 min 0 min 0 W/m 3,2 km/h (1 Bft) 93,62 %
24.11.2022 16:42 10,1 C 8,9 C 5,0 C 85 % 1011,9 hPa 0,0 l/m 0 min 0 min 0 W/m 6,4 km/h (2 Bft) 97,87 %
24.11.2022 16:44 10,1 C 8,9 C 5,0 C 85 % 1012,0 hPa 0,0 l/m 0 min 0 min 0 W/m 3,2 km/h (1 Bft) 95,74 %
24.11.2022 16:46 10,1 C 8,3 C 5,0 C 85 % 1012,0 hPa 0,0 l/m 0 min 0 min 0 W/m 6,4 km/h (2 Bft) 91,49 %
24.11.2022 16:48 10,0 C 8,3 C 5,0 C 85 % 1012,1 hPa 0,0 l/m 0 min 0 min 0 W/m 3,2 km/h (1 Bft) 95,65 %
24.11.2022 16:50 9,9 C 8,3 C 5,0 C 85 % 1012,1 hPa 0,0 l/m 0 min 0 min 0 W/m 3,2 km/h (1 Bft) 95,74 %
24.11.2022 16:52 9,9 C 8,3 C 5,0 C 85 % 1012,2 hPa 0,0 l/m 0 min 0 min 0 W/m 6,4 km/h (2 Bft) 97,87 %
24.11.2022 16:54 9,8 C 8,3 C 5,0 C 85 % 1012,1 hPa 0,0 l/m 0 min 0 min 0 W/m 3,2 km/h (1 Bft) 97,87 %
24.11.2022 16:56 9,8 C 8,3 C 5,0 C 85 % 1012,1 hPa 0,0 l/m 0 min 0 min 0 W/m 3,2 km/h (1 Bft) 95,74 %
24.11.2022 16:58 9,8 C 8,3 C 5,0 C 86 % 1012,1 hPa 0,0 l/m 0 min 0 min 0 W/m 3,2 km/h (1 Bft) 95,65 %
24.11.2022 17:00 9,7 C 8,3 C 5,0 C 86 % 1012,2 hPa 0,0 l/m 0 min 0 min 0 W/m 3,2 km/h (1 Bft) 95,74 %
24.11.2022 17:02 9,7 C 8,3 C 5,0 C 86 % 1012,1 hPa 0,0 l/m 0 min 0 min 0 W/m 6,4 km/h (2 Bft) 95,74 %
24.11.2022 17:04 9,7 C 8,3 C 5,0 C 86 % 1012,2 hPa 0,0 l/m 0 min 0 min 0 W/m 3,2 km/h (1 Bft) 97,87 %
24.11.2022 17:06 9,6 C 8,3 C 5,0 C 86 % 1012,2 hPa 0,0 l/m 0 min 0 min 0 W/m 6,4 km/h (2 Bft) 97,87 %
24.11.2022 17:08 9,6 C 8,3 C 5,0 C 86 % 1012,2 hPa 0,0 l/m 0 min 0 min 0 W/m 3,2 km/h (1 Bft) 93,62 %
24.11.2022 17:10 9,6 C 8,3 C 4,4 C 86 % 1012,2 hPa 0,0 l/m 0 min 0 min 0 W/m 3,2 km/h (1 Bft) 97,87 %
24.11.2022 17:12 9,5 C 8,3 C 4,4 C 86 % 1012,3 hPa 0,0 l/m 0 min 0 min 0 W/m 3,2 km/h (1 Bft) 95,65 %
24.11.2022 17:14 9,5 C 8,3 C 4,4 C 86 % 1012,3 hPa 0,0 l/m 0 min 0 min 0 W/m 3,2 km/h (1 Bft) 97,87 %
24.11.2022 17:16 9,4 C 7,8 C 4,4 C 86 % 1012,3 hPa 0,0 l/m 0 min 0 min 0 W/m 3,2 km/h (1 Bft) 93,62 %
24.11.2022 17:18 9,4 C 7,8 C 4,4 C 87 % 1012,3 hPa 0,0 l/m 0 min 0 min 0 W/m 3,2 km/h (1 Bft) 95,74 %
24.11.2022 17:20 9,4 C 7,8 C 4,4 C 87 % 1012,2 hPa 0,0 l/m 0 min 0 min 0 W/m 3,2 km/h (1 Bft) 93,62 %
24.11.2022 17:22 9,3 C 7,8 C 4,4 C 87 % 1012,3 hPa 0,0 l/m 0 min 0 min 0 W/m 3,2 km/h (1 Bft) 91,30 %
24.11.2022 17:24 9,3 C 7,8 C 4,4 C 87 % 1012,3 hPa 0,0 l/m 0 min 0 min 0 W/m 3,2 km/h (1 Bft) 95,74 %
24.11.2022 17:26 9,2 C 7,8 C 4,4 C 87 % 1012,3 hPa 0,0 l/m 0 min 0 min 0 W/m 3,2 km/h (1 Bft) 93,62 %
24.11.2022 17:28 9,2 C 7,8 C 4,4 C 87 % 1012,3 hPa 0,0 l/m 0 min 0 min 0 W/m 3,2 km/h (1 Bft) 93,62 %
24.11.2022 17:30 9,2 C 7,8 C 4,4 C 87 % 1012,3 hPa 0,0 l/m 0 min 0 min 0 W/m 3,2 km/h (1 Bft) 95,74 %
24.11.2022 17:32 9,1 C 7,8 C 4,4 C 87 % 1012,3 hPa 0,0 l/m 0 min 0 min 0 W/m 3,2 km/h (1 Bft) 95,74 %
24.11.2022 17:34 9,1 C 7,8 C 4,4 C 87 % 1012,3 hPa 0,0 l/m 0 min 0 min 0 W/m 3,2 km/h (1 Bft) 93,48 %
24.11.2022 17:36 9,1 C 7,8 C 4,4 C 87 % 1012,3 hPa 0,0 l/m 0 min 0 min 0 W/m 3,2 km/h (1 Bft) 97,87 %
24.11.2022 17:38 9,0 C 7,8 C 4,4 C 87 % 1012,3 hPa 0,0 l/m 0 min 0 min 0 W/m 3,2 km/h (1 Bft) 95,74 %
24.11.2022 17:40 9,0 C 7,8 C 4,4 C 87 % 1012,3 hPa 0,0 l/m 0 min 0 min 0 W/m 3,2 km/h (1 Bft) 97,87 %
24.11.2022 17:42 8,9 C 7,8 C 4,4 C 87 % 1012,3 hPa 0,0 l/m 0 min 0 min 0 W/m 3,2 km/h (1 Bft) 95,74 %
24.11.2022 17:44 8,9 C 7,8 C 4,4 C 87 % 1012,3 hPa 0,0 l/m 0 min 0 min 0 W/m 3,2 km/h (1 Bft) 95,74 %
24.11.2022 17:46 8,9 C 7,8 C 4,4 C 87 % 1012,4 hPa 0,0 l/m 0 min 0 min 0 W/m 0,0 km/h (0 Bft) 93,48 %
24.11.2022 17:48 8,8 C 7,8 C 4,4 C 88 % 1012,3 hPa 0,0 l/m 0 min 0 min 0 W/m 3,2 km/h (1 Bft) 95,74 %
24.11.2022 17:50 8,8 C 7,8 C 4,4 C 88 % 1012,4 hPa 0,0 l/m 0 min 0 min 0 W/m 3,2 km/h (1 Bft) 95,74 %
24.11.2022 17:52 8,8 C 7,8 C 4,4 C 88 % 1012,4 hPa 0,0 l/m 0 min 0 min 0 W/m 3,2 km/h (1 Bft) 95,74 %
24.11.2022 17:54 8,8 C 7,8 C 4,4 C 88 % 1012,4 hPa 0,0 l/m 0 min 0 min 0 W/m 3,2 km/h (1 Bft) 97,87 %
24.11.2022 17:56 8,7 C 7,8 C 4,4 C 88 % 1012,4 hPa 0,0 l/m 0 min 0 min 0 W/m 6,4 km/h (2 Bft) 95,74 %
24.11.2022 17:58 8,7 C 7,8 C 4,4 C 88 % 1012,4 hPa 0,0 l/m 0 min 0 min 0 W/m 3,2 km/h (1 Bft) 97,83 %
24.11.2022 18:00 8,7 C 7,8 C 4,4 C 88 % 1012,3 hPa 0,0 l/m 0 min 0 min 0 W/m 6,4 km/h (2 Bft) 95,74 %
24.11.2022 18:02 8,7 C 7,8 C 4,4 C 88 % 1012,3 hPa 0,0 l/m 0 min 0 min 0 W/m 3,2 km/h (1 Bft) 95,74 %
24.11.2022 18:04 8,6 C 7,2 C 4,4 C 88 % 1012,3 hPa 0,0 l/m 0 min 0 min 0 W/m 6,4 km/h (2 Bft) 97,92 %
24.11.2022 18:08 8,6 C 7,8 C 4,4 C 88 % 1012,4 hPa 0,0 l/m 0 min 0 min 0 W/m 16,1 km/h (3 Bft) 96,39 %
24.11.2022 18:10 8,6 C 7,8 C 4,4 C 88 % 1012,4 hPa 0,0 l/m 0 min 0 min 0 W/m 6,4 km/h (2 Bft) 97,87 %
24.11.2022 18:12 8,6 C 7,8 C 4,4 C 88 % 1012,4 hPa 0,0 l/m 0 min 0 min 0 W/m 25,7 km/h (4 Bft) 97,87 %
24.11.2022 18:14 8,5 C 7,8 C 4,4 C 88 % 1012,5 hPa 0,0 l/m 0 min 0 min 0 W/m 9,7 km/h (2 Bft) 100,00 %
24.11.2022 18:16 8,6 C 7,8 C 4,4 C 88 % 1012,4 hPa 0,0 l/m 0 min 0 min 0 W/m 12,9 km/h (3 Bft) 97,87 %
24.11.2022 18:18 8,5 C 7,8 C 4,4 C 88 % 1012,5 hPa 0,0 l/m 0 min 0 min 0 W/m 9,7 km/h (2 Bft) 97,87 %
24.11.2022 18:20 8,6 C 7,8 C 4,4 C 88 % 1012,4 hPa 0,0 l/m 0 min 0 min 0 W/m 22,5 km/h (4 Bft) 100,00 %
24.11.2022 18:22 8,5 C 7,8 C 4,4 C 88 % 1012,5 hPa 0,0 l/m 0 min 0 min 0 W/m 9,7 km/h (2 Bft) 95,74 %
24.11.2022 18:24 8,5 C 7,8 C 4,4 C 88 % 1012,5 hPa 0,0 l/m 0 min 0 min 0 W/m 12,9 km/h (3 Bft) 97,87 %
24.11.2022 18:26 8,6 C 7,8 C 4,4 C 88 % 1012,5 hPa 0,0 l/m 0 min 0 min 0 W/m 12,9 km/h (3 Bft) 100,00 %
24.11.2022 18:28 8,6 C 7,8 C 4,4 C 88 % 1012,5 hPa 0,0 l/m 0 min 0 min 0 W/m 9,7 km/h (2 Bft) 97,87 %
24.11.2022 18:30 8,5 C 7,8 C 4,4 C 88 % 1012,5 hPa 0,0 l/m 0 min 0 min 0 W/m 12,9 km/h (3 Bft) 97,87 %
24.11.2022 18:32 8,5 C 7,8 C 4,4 C 87 % 1012,5 hPa 0,0 l/m 0 min 0 min 0 W/m 6,4 km/h (2 Bft) 100,00 %
24.11.2022 18:34 8,5 C 7,8 C 4,4 C 87 % 1012,6 hPa 0,0 l/m 0 min 0 min 0 W/m 9,7 km/h (2 Bft) 100,00 %
24.11.2022 18:36 8,5 C 7,8 C 4,4 C 87 % 1012,5 hPa 0,0 l/m 0 min 0 min 0 W/m 9,7 km/h (2 Bft) 95,74 %
24.11.2022 18:38 8,5 C 7,8 C 4,4 C 87 % 1012,6 hPa 0,0 l/m 0 min 0 min 0 W/m 9,7 km/h (2 Bft) 97,83 %
24.11.2022 18:40 8,4 C 7,8 C 4,4 C 87 % 1012,5 hPa 0,0 l/m 0 min 0 min 0 W/m 9,7 km/h (2 Bft) 100,00 %
24.11.2022 18:42 8,4 C 7,8 C 4,4 C 87 % 1012,5 hPa 0,0 l/m 0 min 0 min 0 W/m 22,5 km/h (4 Bft) 97,87 %
24.11.2022 18:44 8,4 C 7,8 C 4,4 C 87 % 1012,6 hPa 0,0 l/m 0 min 0 min 0 W/m 6,4 km/h (2 Bft) 100,00 %
24.11.2022 18:46 8,4 C 7,8 C 4,4 C 87 % 1012,6 hPa 0,0 l/m 0 min 0 min 0 W/m 12,9 km/h (3 Bft) 97,87 %
24.11.2022 18:48 8,4 C 7,8 C 4,4 C 87 % 1012,6 hPa 0,0 l/m 0 min 0 min 0 W/m 9,7 km/h (2 Bft) 97,83 %
24.11.2022 18:50 8,4 C 7,2 C 4,4 C 87 % 1012,6 hPa 0,0 l/m 0 min 0 min 0 W/m 12,9 km/h (3 Bft) 100,00 %
24.11.2022 18:52 8,4 C 7,2 C 4,4 C 87 % 1012,6 hPa 0,0 l/m 0 min 0 min 0 W/m 19,3 km/h (3 Bft) 100,00 %
24.11.2022 18:54 8,4 C 7,2 C 4,4 C 87 % 1012,6 hPa 0,0 l/m 0 min 0 min 0 W/m 16,1 km/h (3 Bft) 97,87 %
24.11.2022 18:56 8,4 C 7,8 C 4,4 C 87 % 1012,6 hPa 0,0 l/m 0 min 0 min 0 W/m 16,1 km/h (3 Bft) 98,18 %
24.11.2022 18:58 8,3 C 7,2 C 4,4 C 86 % 1012,6 hPa 0,0 l/m 0 min 0 min 0 W/m 16,1 km/h (3 Bft) 100,00 %
24.11.2022 19:00 8,3 C 7,2 C 4,4 C 86 % 1012,7 hPa 0,0 l/m 0 min 0 min 0 W/m 9,7 km/h (2 Bft) 97,87 %
24.11.2022 19:02 8,3 C 7,2 C 4,4 C 86 % 1012,6 hPa 0,0 l/m 0 min 0 min 0 W/m 6,4 km/h (2 Bft) 95,74 %
24.11.2022 19:04 8,3 C 7,2 C 4,4 C 86 % 1012,7 hPa 0,0 l/m 0 min 0 min 0 W/m 9,7 km/h (2 Bft) 100,00 %
24.11.2022 19:06 8,3 C 7,2 C 3,9 C 86 % 1012,6 hPa 0,0 l/m 0 min 0 min 0 W/m 6,4 km/h (2 Bft) 97,87 %
24.11.2022 19:08 8,2 C 7,2 C 3,9 C 86 % 1012,7 hPa 0,0 l/m 0 min 0 min 0 W/m 6,4 km/h (2 Bft) 100,00 %
24.11.2022 19:10 8,2 C 7,2 C 3,9 C 87 % 1012,7 hPa 0,0 l/m 0 min 0 min 0 W/m 6,4 km/h (2 Bft) 100,00 %
24.11.2022 19:12 8,2 C 7,2 C 3,9 C 87 % 1012,7 hPa 0,0 l/m 0 min 0 min 0 W/m 3,2 km/h (1 Bft) 97,87 %
24.11.2022 19:14 8,1 C 6,7 C 3,9 C 87 % 1012,7 hPa 0,0 l/m 0 min 0 min 0 W/m 6,4 km/h (2 Bft) 100,00 %
24.11.2022 19:16 8,1 C 6,7 C 3,9 C 87 % 1012,8 hPa 0,0 l/m 0 min 0 min 0 W/m 12,9 km/h (3 Bft) 97,87 %
24.11.2022 19:18 8,1 C 6,7 C 3,9 C 87 % 1012,7 hPa 0,0 l/m 0 min 0 min 0 W/m 3,2 km/h (1 Bft) 95,74 %
24.11.2022 19:20 8,0 C 6,7 C 3,9 C 87 % 1012,8 hPa 0,0 l/m 0 min 0 min 0 W/m 6,4 km/h (2 Bft) 100,00 %
24.11.2022 19:22 7,9 C 6,7 C 3,9 C 87 % 1012,7 hPa 0,0 l/m 0 min 0 min 0 W/m 6,4 km/h (2 Bft) 97,83 %
24.11.2022 19:24 7,9 C 6,7 C 3,9 C 87 % 1012,8 hPa 0,0 l/m 0 min 0 min 0 W/m 3,2 km/h (1 Bft) 95,74 %
24.11.2022 19:26 7,9 C 6,7 C 3,9 C 87 % 1012,8 hPa 0,0 l/m 0 min 0 min 0 W/m 9,7 km/h (2 Bft) 97,87 %
24.11.2022 19:28 7,8 C 6,7 C 3,3 C 87 % 1012,8 hPa 0,0 l/m 0 min 0 min 0 W/m 6,4 km/h (2 Bft) 95,74 %
24.11.2022 19:30 7,8 C 6,7 C 3,3 C 87 % 1012,7 hPa 0,0 l/m 0 min 0 min 0 W/m 6,4 km/h (2 Bft) 93,62 %
24.11.2022 19:32 7,8 C 6,7 C 3,3 C 87 % 1012,7 hPa 0,0 l/m 0 min 0 min 0 W/m 6,4 km/h (2 Bft) 95,74 %
24.11.2022 19:34 7,7 C 6,7 C 3,3 C 88 % 1012,7 hPa 0,0 l/m 0 min 0 min 0 W/m 3,2 km/h (1 Bft) 95,65 %
24.11.2022 19:36 7,7 C 6,7 C 3,3 C 88 % 1012,7 hPa 0,0 l/m 0 min 0 min 0 W/m 6,4 km/h (2 Bft) 95,74 %
24.11.2022 19:38 7,7 C 6,7 C 3,3 C 88 % 1012,7 hPa 0,0 l/m 0 min 0 min 0 W/m 6,4 km/h (2 Bft) 91,49 %
24.11.2022 19:40 7,6 C 6,7 C 3,3 C 88 % 1012,7 hPa 0,0 l/m 0 min 0 min 0 W/m 12,9 km/h (3 Bft) 93,62 %
24.11.2022 19:42 7,6 C 6,7 C 3,3 C 88 % 1012,6 hPa 0,0 l/m 0 min 0 min 0 W/m 6,4 km/h (2 Bft) 95,74 %
24.11.2022 19:44 7,6 C 6,7 C 3,3 C 88 % 1012,7 hPa 0,0 l/m 0 min 0 min 0 W/m 6,4 km/h (2 Bft) 95,74 %
24.11.2022 19:46 7,5 C 6,7 C 3,3 C 88 % 1012,7 hPa 0,0 l/m 0 min 0 min 0 W/m 3,2 km/h (1 Bft) 95,74 %
24.11.2022 19:48 7,5 C 6,1 C 3,3 C 88 % 1012,6 hPa 0,0 l/m 0 min 0 min 0 W/m 12,9 km/h (3 Bft) 95,65 %
24.11.2022 19:50 7,4 C 6,1 C 3,3 C 88 % 1012,7 hPa 0,0 l/m 0 min 0 min 0 W/m 12,9 km/h (3 Bft) 93,62 %
24.11.2022 19:52 7,4 C 6,1 C 3,3 C 88 % 1012,7 hPa 0,0 l/m 0 min 0 min 0 W/m 6,4 km/h (2 Bft) 97,87 %
24.11.2022 19:54 7,3 C 6,1 C 3,3 C 88 % 1012,7 hPa 0,0 l/m 0 min 0 min 0 W/m 6,4 km/h (2 Bft) 93,62 %
24.11.2022 19:56 7,3 C 6,7 C 3,3 C 88 % 1012,7 hPa 0,0 l/m 0 min 0 min 0 W/m 12,9 km/h (3 Bft) 97,87 %
24.11.2022 19:58 7,3 C 6,1 C 3,3 C 89 % 1012,7 hPa 0,0 l/m 0 min 0 min 0 W/m 6,4 km/h (2 Bft) 95,65 %
24.11.2022 20:00 7,3 C 6,1 C 3,3 C 88 % 1012,6 hPa 0,0 l/m 0 min 0 min 0 W/m 6,4 km/h (2 Bft) 97,87 %
24.11.2022 20:02 7,3 C 6,7 C 3,3 C 88 % 1012,6 hPa 0,0 l/m 0 min 0 min 0 W/m 6,4 km/h (2 Bft) 95,74 %
24.11.2022 20:04 7,2 C 6,1 C 3,3 C 89 % 1012,6 hPa 0,0 l/m 0 min 0 min 0 W/m 6,4 km/h (2 Bft) 97,87 %
24.11.2022 20:06 7,2 C 6,1 C 3,3 C 89 % 1012,6 hPa 0,0 l/m 0 min 0 min 0 W/m 12,9 km/h (3 Bft) 97,87 %
24.11.2022 20:08 7,2 C 6,1 C 3,3 C 89 % 1012,6 hPa 0,0 l/m 0 min 0 min 0 W/m 3,2 km/h (1 Bft) 95,74 %
24.11.2022 20:10 7,2 C 6,1 C 3,3 C 89 % 1012,6 hPa 0,0 l/m 0 min 0 min 0 W/m 6,4 km/h (2 Bft) 97,83 %
24.11.2022 20:12 7,2 C 6,1 C 3,3 C 89 % 1012,6 hPa 0,0 l/m 0 min 0 min 0 W/m 6,4 km/h (2 Bft) 97,87 %
24.11.2022 20:14 7,1 C 6,1 C 3,3 C 89 % 1012,5 hPa 0,0 l/m 0 min 0 min 0 W/m 6,4 km/h (2 Bft) 95,74 %
24.11.2022 20:16 7,1 C 6,1 C 3,3 C 89 % 1012,5 hPa 0,0 l/m 0 min 0 min 0 W/m 6,4 km/h (2 Bft) 97,87 %
24.11.2022 20:18 7,1 C 6,1 C 3,3 C 89 % 1012,5 hPa 0,0 l/m 0 min 0 min 0 W/m 6,4 km/h (2 Bft) 97,87 %
24.11.2022 20:20 7,0 C 6,1 C 2,8 C 89 % 1012,5 hPa 0,0 l/m 0 min 0 min 0 W/m 12,9 km/h (3 Bft) 95,74 %
24.11.2022 20:22 6,9 C 6,1 C 2,8 C 89 % 1012,5 hPa 0,0 l/m 0 min 0 min 0 W/m 12,9 km/h (3 Bft) 97,83 %
24.11.2022 20:24 6,9 C 6,1 C 2,8 C 89 % 1012,5 hPa 0,0 l/m 0 min 0 min 0 W/m 6,4 km/h (2 Bft) 97,87 %
24.11.2022 20:26 6,9 C 5,6 C 2,8 C 89 % 1012,5 hPa 0,0 l/m 0 min 0 min 0 W/m 9,7 km/h (2 Bft) 97,87 %
24.11.2022 20:28 6,9 C 5,6 C 2,8 C 89 % 1012,4 hPa 0,0 l/m 0 min 0 min 0 W/m 6,4 km/h (2 Bft) 95,74 %
24.11.2022 20:30 6,8 C 5,6 C 2,8 C 89 % 1012,4 hPa 0,0 l/m 0 min 0 min 0 W/m 6,4 km/h (2 Bft) 97,87 %
24.11.2022 20:32 6,8 C 5,6 C 2,8 C 89 % 1012,4 hPa 0,0 l/m 0 min 0 min 0 W/m 12,9 km/h (3 Bft) 97,87 %
24.11.2022 20:34 6,8 C 5,6 C 2,8 C 89 % 1012,5 hPa 0,0 l/m 0 min 0 min 0 W/m 12,9 km/h (3 Bft) 97,83 %
24.11.2022 20:36 6,7 C 5,6 C 2,8 C 89 % 1012,5 hPa 0,0 l/m 0 min 0 min 0 W/m 6,4 km/h (2 Bft) 91,49 %
24.11.2022 20:38 6,7 C 5,6 C 2,8 C 89 % 1012,5 hPa 0,0 l/m 0 min 0 min 0 W/m 12,9 km/h (3 Bft) 97,87 %
24.11.2022 20:40 6,7 C 5,6 C 2,8 C 89 % 1012,5 hPa 0,0 l/m 0 min 0 min 0 W/m 12,9 km/h (3 Bft) 97,87 %
24.11.2022 20:42 6,6 C 5,6 C 2,8 C 89 % 1012,5 hPa 0,0 l/m 0 min 0 min 0 W/m 6,4 km/h (2 Bft) 97,87 %
24.11.2022 20:44 6,6 C 5,6 C 2,8 C 90 % 1012,5 hPa 0,0 l/m 0 min 0 min 0 W/m 6,4 km/h (2 Bft) 97,87 %
24.11.2022 20:46 6,6 C 5,6 C 2,8 C 90 % 1012,5 hPa 0,0 l/m 0 min 0 min 0 W/m 12,9 km/h (3 Bft) 97,83 %
24.11.2022 20:48 6,6 C 5,6 C 2,8 C 90 % 1012,5 hPa 0,0 l/m 0 min 0 min 0 W/m 12,9 km/h (3 Bft) 97,87 %
24.11.2022 20:50 6,6 C 5,6 C 2,8 C 90 % 1012,5 hPa 0,0 l/m 0 min 0 min 0 W/m 6,4 km/h (2 Bft) 97,87 %
24.11.2022 20:52 6,6 C 5,6 C 2,8 C 90 % 1012,5 hPa 0,0 l/m 0 min 0 min 0 W/m 3,2 km/h (1 Bft) 97,87 %
24.11.2022 20:54 6,5 C 5,6 C 2,8 C 90 % 1012,4 hPa 0,0 l/m 0 min 0 min 0 W/m 6,4 km/h (2 Bft) 95,74 %
24.11.2022 20:56 6,5 C 5,6 C 2,8 C 90 % 1012,4 hPa 0,0 l/m 0 min 0 min 0 W/m 6,4 km/h (2 Bft) 100,00 %
24.11.2022 20:58 6,5 C 5,6 C 2,8 C 90 % 1012,5 hPa 0,0 l/m 0 min 0 min 0 W/m 6,4 km/h (2 Bft) 100,00 %
24.11.2022 21:00 6,5 C 5,6 C 2,8 C 90 % 1012,5 hPa 0,0 l/m 0 min 0 min 0 W/m 12,9 km/h (3 Bft) 97,87 %
24.11.2022 21:02 6,5 C 5,6 C 2,8 C 90 % 1012,5 hPa 0,0 l/m 0 min 0 min 0 W/m 16,1 km/h (3 Bft) 100,00 %
24.11.2022 21:04 6,4 C 5,6 C 2,8 C 90 % 1012,5 hPa 0,0 l/m 0 min 0 min 0 W/m 6,4 km/h (2 Bft) 97,87 %
24.11.2022 21:06 6,4 C 5,6 C 2,8 C 90 % 1012,5 hPa 0,0 l/m 0 min 0 min 0 W/m 19,3 km/h (3 Bft) 100,00 %
24.11.2022 21:08 6,4 C 5,6 C 2,8 C 90 % 1012,5 hPa 0,0 l/m 0 min 0 min 0 W/m 12,9 km/h (3 Bft) 100,00 %
24.11.2022 21:10 6,4 C 5,6 C 2,8 C 90 % 1012,5 hPa 0,0 l/m 0 min 0 min 0 W/m 12,9 km/h (3 Bft) 95,74 %
24.11.2022 21:12 6,4 C 5,6 C 2,8 C 90 % 1012,5 hPa 0,0 l/m 0 min 0 min 0 W/m 12,9 km/h (3 Bft) 95,74 %
24.11.2022 21:14 6,4 C 5,6 C 2,8 C 90 % 1012,5 hPa 0,0 l/m 0 min 0 min 0 W/m 16,1 km/h (3 Bft) 97,87 %
24.11.2022 21:16 6,4 C 5,6 C 2,8 C 90 % 1012,5 hPa 0,0 l/m 0 min 0 min 0 W/m 12,9 km/h (3 Bft) 95,12 %
24.11.2022 21:18 6,4 C 5,6 C 2,8 C 90 % 1012,5 hPa 0,0 l/m 0 min 0 min 0 W/m 16,1 km/h (3 Bft) 97,87 %
24.11.2022 21:20 6,4 C 5,6 C 2,8 C 90 % 1012,5 hPa 0,0 l/m 0 min 0 min 0 W/m 16,1 km/h (3 Bft) 97,87 %
24.11.2022 21:22 6,4 C 5,6 C 2,8 C 90 % 1012,5 hPa 0,0 l/m 0 min 0 min 0 W/m 12,9 km/h (3 Bft) 97,83 %
24.11.2022 21:24 6,4 C 5,6 C 2,8 C 91 % 1012,5 hPa 0,0 l/m 0 min 0 min 0 W/m 19,3 km/h (3 Bft) 97,87 %
24.11.2022 21:26 6,3 C 5,6 C 2,8 C 91 % 1012,5 hPa 0,0 l/m 0 min 0 min 0 W/m 12,9 km/h (3 Bft) 95,74 %
24.11.2022 21:28 6,3 C 5,6 C 2,8 C 91 % 1012,5 hPa 0,0 l/m 0 min 0 min 0 W/m 12,9 km/h (3 Bft) 95,74 %
24.11.2022 21:30 6,3 C 5,6 C 2,8 C 91 % 1012,6 hPa 0,0 l/m 0 min 0 min 0 W/m 12,9 km/h (3 Bft) 97,87 %
24.11.2022 21:32 6,3 C 5,6 C 2,8 C 91 % 1012,5 hPa 0,0 l/m 0 min 0 min 0 W/m 12,9 km/h (3 Bft) 95,74 %
24.11.2022 21:34 6,3 C 5,6 C 2,8 C 91 % 1012,6 hPa 0,0 l/m 0 min 0 min 0 W/m 16,1 km/h (3 Bft) 95,65 %
24.11.2022 21:36 6,3 C 5,6 C 2,8 C 91 % 1012,6 hPa 0,0 l/m 0 min 0 min 0 W/m 12,9 km/h (3 Bft) 97,87 %
24.11.2022 21:38 6,3 C 5,6 C 2,8 C 91 % 1012,5 hPa 0,0 l/m 0 min 0 min 0 W/m 16,1 km/h (3 Bft) 93,62 %
24.11.2022 21:40 6,2 C 5,6 C 2,8 C 91 % 1012,5 hPa 0,0 l/m 0 min 0 min 0 W/m 16,1 km/h (3 Bft) 97,87 %
24.11.2022 21:42 6,2 C 5,6 C 2,8 C 91 % 1012,4 hPa 0,0 l/m 0 min 0 min 0 W/m 6,4 km/h (2 Bft) 97,87 %
24.11.2022 21:44 6,2 C 5,6 C 2,8 C 91 % 1012,4 hPa 0,0 l/m 0 min 0 min 0 W/m 22,5 km/h (4 Bft) 93,62 %
24.11.2022 21:46 6,2 C 5,6 C 2,8 C 91 % 1012,4 hPa 0,0 l/m 0 min 0 min 0 W/m 22,5 km/h (4 Bft) 97,83 %
24.11.2022 21:48 6,2 C 5,6 C 2,8 C 91 % 1012,4 hPa 0,0 l/m 0 min 0 min 0 W/m 19,3 km/h (3 Bft) 97,87 %
24.11.2022 21:50 6,2 C 5,6 C 2,8 C 91 % 1012,4 hPa 0,0 l/m 0 min 0 min 0 W/m 6,4 km/h (2 Bft) 97,87 %
24.11.2022 21:52 6,2 C 5,6 C 2,8 C 91 % 1012,4 hPa 0,0 l/m 0 min 0 min 0 W/m 22,5 km/h (4 Bft) 97,87 %
24.11.2022 21:54 6,3 C 5,6 C 2,8 C 91 % 1012,4 hPa 0,0 l/m 0 min 0 min 0 W/m 16,1 km/h (3 Bft) 98,11 %
24.11.2022 21:59 6,3 C 5,6 C 2,8 C 91 % 1012,4 hPa 0,0 l/m 0 min 0 min 0 W/m 16,1 km/h (3 Bft) 96,55 %
24.11.2022 22:00 6,3 C 5,6 C 2,8 C 91 % 1012,4 hPa 0,0 l/m 0 min 0 min 0 W/m 12,9 km/h (3 Bft) 95,65 %
24.11.2022 22:02 6,3 C 5,6 C 2,8 C 91 % 1012,4 hPa 0,0 l/m 0 min 0 min 0 W/m 16,1 km/h (3 Bft) 97,87 %
24.11.2022 22:04 6,3 C 5,6 C 2,8 C 91 % 1012,5 hPa 0,0 l/m 0 min 0 min 0 W/m 9,7 km/h (2 Bft) 97,87 %
24.11.2022 22:06 6,3 C 5,6 C 2,8 C 91 % 1012,5 hPa 0,0 l/m 0 min 0 min 0 W/m 12,9 km/h (3 Bft) 97,87 %
24.11.2022 22:08 6,3 C 5,6 C 2,8 C 91 % 1012,5 hPa 0,0 l/m 0 min 0 min 0 W/m 12,9 km/h (3 Bft) 97,83 %
24.11.2022 22:10 6,3 C 5,6 C 2,8 C 91 % 1012,6 hPa 0,0 l/m 0 min 0 min 0 W/m 19,3 km/h (3 Bft) 95,74 %
24.11.2022 22:12 6,3 C 5,6 C 2,8 C 91 % 1012,6 hPa 0,0 l/m 0 min 0 min 0 W/m 12,9 km/h (3 Bft) 97,87 %
24.11.2022 22:14 6,3 C 5,6 C 2,8 C 91 % 1012,6 hPa 0,0 l/m 0 min 0 min 0 W/m 6,4 km/h (2 Bft) 97,87 %
24.11.2022 22:16 6,3 C 5,6 C 2,8 C 91 % 1012,6 hPa 0,0 l/m 0 min 0 min 0 W/m 9,7 km/h (2 Bft) 100,00 %
24.11.2022 22:18 6,3 C 5,6 C 2,8 C 91 % 1012,6 hPa 0,0 l/m 0 min 0 min 0 W/m 12,9 km/h (3 Bft) 97,87 %
24.11.2022 22:20 6,3 C 5,6 C 2,8 C 91 % 1012,5 hPa 0,0 l/m 0 min 0 min 0 W/m 6,4 km/h (2 Bft) 100,00 %
24.11.2022 22:22 6,3 C 5,6 C 2,8 C 91 % 1012,5 hPa 0,0 l/m 0 min 0 min 0 W/m 16,1 km/h (3 Bft) 100,00 %
24.11.2022 22:24 6,3 C 5,6 C 2,8 C 91 % 1012,5 hPa 0,0 l/m 0 min 0 min 0 W/m 9,7 km/h (2 Bft) 97,87 %
24.11.2022 22:26 6,3 C 5,6 C 2,8 C 91 % 1012,5 hPa 0,0 l/m 0 min 0 min 0 W/m 12,9 km/h (3 Bft) 100,00 %
24.11.2022 22:28 6,3 C 5,6 C 2,8 C 91 % 1012,5 hPa 0,0 l/m 0 min 0 min 0 W/m 12,9 km/h (3 Bft) 97,87 %
24.11.2022 22:30 6,3 C 5,6 C 2,8 C 91 % 1012,5 hPa 0,0 l/m 0 min 0 min 0 W/m 9,7 km/h (2 Bft) 100,00 %
24.11.2022 22:32 6,3 C 5,6 C 2,8 C 91 % 1012,4 hPa 0,0 l/m 0 min 0 min 0 W/m 12,9 km/h (3 Bft) 97,83 %
24.11.2022 22:34 6,3 C 5,6 C 2,8 C 91 % 1012,4 hPa 0,0 l/m 0 min 0 min 0 W/m 16,1 km/h (3 Bft) 100,00 %
24.11.2022 22:36 6,3 C 5,6 C 2,8 C 91 % 1012,4 hPa 0,0 l/m 0 min 0 min 0 W/m 16,1 km/h (3 Bft) 100,00 %
24.11.2022 22:38 6,3 C 5,6 C 2,8 C 91 % 1012,4 hPa 0,0 l/m 0 min 0 min 0 W/m 12,9 km/h (3 Bft) 100,00 %
24.11.2022 22:40 6,3 C 5,6 C 2,8 C 91 % 1012,4 hPa 0,0 l/m 0 min 0 min 0 W/m 12,9 km/h (3 Bft) 100,00 %
24.11.2022 22:42 6,3 C 5,6 C 2,8 C 91 % 1012,4 hPa 0,0 l/m 0 min 0 min 0 W/m 12,9 km/h (3 Bft) 100,00 %
24.11.2022 22:44 6,3 C 5,6 C 2,8 C 91 % 1012,4 hPa 0,0 l/m 0 min 0 min 0 W/m 16,1 km/h (3 Bft) 100,00 %
24.11.2022 22:46 6,4 C 5,6 C 2,8 C 91 % 1012,4 hPa 0,0 l/m 0 min 0 min 0 W/m 16,1 km/h (3 Bft) 100,00 %
24.11.2022 22:48 6,4 C 5,6 C 2,8 C 91 % 1012,4 hPa 0,0 l/m 0 min 0 min 0 W/m 19,3 km/h (3 Bft) 100,00 %
24.11.2022 22:50 6,4 C 6,1 C 2,8 C 91 % 1012,4 hPa 0,0 l/m 0 min 0 min 0 W/m 19,3 km/h (3 Bft) 100,00 %
24.11.2022 22:52 6,5 C 6,1 C 2,8 C 92 % 1012,5 hPa 0,0 l/m 0 min 0 min 0 W/m 6,4 km/h (2 Bft) 100,00 %
24.11.2022 22:54 6,5 C 6,1 C 2,8 C 92 % 1012,4 hPa 0,0 l/m 0 min 0 min 0 W/m 6,4 km/h (2 Bft) 48,72 %
24.11.2022 22:56 6,5 C 6,1 C 2,8 C 92 % 1012,4 hPa 0,0 l/m 0 min 0 min 0 W/m 12,9 km/h (3 Bft) 100,00 %
24.11.2022 22:58 6,5 C 6,1 C 2,8 C 92 % 1012,4 hPa 0,0 l/m 0 min 0 min 0 W/m 16,1 km/h (3 Bft) 95,74 %
24.11.2022 23:00 6,5 C 6,1 C 2,8 C 92 % 1012,3 hPa 0,0 l/m 0 min 0 min 0 W/m 22,5 km/h (4 Bft) 97,87 %
24.11.2022 23:02 6,6 C 6,1 C 2,8 C 91 % 1012,3 hPa 0,0 l/m 0 min 0 min 0 W/m 12,9 km/h (3 Bft) 95,74 %
24.11.2022 23:04 6,6 C 6,1 C 3,3 C 91 % 1012,3 hPa 0,0 l/m 0 min 0 min 0 W/m 12,9 km/h (3 Bft) 97,56 %
24.11.2022 23:06 6,6 C 6,1 C 3,3 C 91 % 1012,3 hPa 0,0 l/m 0 min 0 min 0 W/m 12,9 km/h (3 Bft) 96,23 %
24.11.2022 23:08 6,6 C 6,1 C 3,3 C 91 % 1012,3 hPa 0,0 l/m 0 min 0 min 0 W/m 16,1 km/h (3 Bft) 97,83 %
24.11.2022 23:10 6,7 C 6,1 C 3,3 C 91 % 1012,3 hPa 0,0 l/m 0 min 0 min 0 W/m 19,3 km/h (3 Bft) 97,87 %
24.11.2022 23:12 6,7 C 6,1 C 3,3 C 91 % 1012,3 hPa 0,0 l/m 0 min 0 min 0 W/m 16,1 km/h (3 Bft) 91,49 %
24.11.2022 23:14 6,7 C 6,1 C 3,3 C 91 % 1012,4 hPa 0,0 l/m 0 min 0 min 0 W/m 12,9 km/h (3 Bft) 93,62 %
24.11.2022 23:16 6,7 C 6,1 C 3,3 C 91 % 1012,3 hPa 0,0 l/m 0 min 0 min 0 W/m 12,9 km/h (3 Bft) 95,74 %
24.11.2022 23:18 6,7 C 6,1 C 3,3 C 91 % 1012,3 hPa 0,0 l/m 0 min 0 min 0 W/m 12,9 km/h (3 Bft) 95,74 %
24.11.2022 23:20 6,7 C 6,1 C 3,3 C 91 % 1012,2 hPa 0,0 l/m 0 min 0 min 0 W/m 16,1 km/h (3 Bft) 95,65 %
24.11.2022 23:22 6,8 C 6,1 C 3,3 C 91 % 1012,2 hPa 0,0 l/m 0 min 0 min 0 W/m 12,9 km/h (3 Bft) 93,62 %
24.11.2022 23:24 6,8 C 6,1 C 3,3 C 91 % 1012,2 hPa 0,0 l/m 0 min 0 min 0 W/m 12,9 km/h (3 Bft) 95,74 %
24.11.2022 23:26 6,8 C 6,1 C 3,3 C 92 % 1012,2 hPa 0,0 l/m 0 min 0 min 0 W/m 16,1 km/h (3 Bft) 95,74 %
24.11.2022 23:28 6,8 C 6,1 C 3,3 C 92 % 1012,2 hPa 0,0 l/m 0 min 0 min 0 W/m 16,1 km/h (3 Bft) 95,74 %
24.11.2022 23:30 6,8 C 6,1 C 3,3 C 91 % 1012,2 hPa 0,0 l/m 0 min 0 min 0 W/m 12,9 km/h (3 Bft) 93,48 %
24.11.2022 23:32 6,8 C 6,1 C 3,3 C 91 % 1012,2 hPa 0,0 l/m 0 min 0 min 0 W/m 16,1 km/h (3 Bft) 95,12 %
24.11.2022 23:34 6,8 C 6,1 C 3,3 C 91 % 1012,2 hPa 0,0 l/m 0 min 0 min 0 W/m 12,9 km/h (3 Bft) 97,87 %
24.11.2022 23:36 6,8 C 6,1 C 3,3 C 92 % 1012,2 hPa 0,0 l/m 0 min 0 min 0 W/m 16,1 km/h (3 Bft) 95,74 %
24.11.2022 23:38 6,9 C 6,1 C 3,3 C 92 % 1012,2 hPa 0,0 l/m 0 min 0 min 0 W/m 12,9 km/h (3 Bft) 95,74 %
24.11.2022 23:40 6,9 C 6,1 C 3,3 C 92 % 1012,1 hPa 0,0 l/m 0 min 0 min 0 W/m 6,4 km/h (2 Bft) 97,87 %
24.11.2022 23:42 6,9 C 6,1 C 3,3 C 92 % 1012,1 hPa 0,0 l/m 0 min 0 min 0 W/m 19,3 km/h (3 Bft) 95,74 %
24.11.2022 23:44 6,9 C 6,1 C 3,3 C 92 % 1012,1 hPa 0,0 l/m 0 min 0 min 0 W/m 12,9 km/h (3 Bft) 97,83 %
24.11.2022 23:46 6,9 C 6,1 C 3,3 C 92 % 1012,0 hPa 0,0 l/m 0 min 0 min 0 W/m 12,9 km/h (3 Bft) 97,87 %
24.11.2022 23:48 6,9 C 6,1 C 3,3 C 92 % 1012,0 hPa 0,0 l/m 0 min 0 min 0 W/m 12,9 km/h (3 Bft) 97,87 %
24.11.2022 23:50 6,9 C 6,1 C 3,3 C 92 % 1012,0 hPa 0,0 l/m 0 min 0 min 0 W/m 12,9 km/h (3 Bft) 95,74 %
24.11.2022 23:52 6,9 C 6,1 C 3,3 C 92 % 1011,9 hPa 0,0 l/m 0 min 0 min 0 W/m 12,9 km/h (3 Bft) 93,62 %
24.11.2022 23:54 6,9 C 6,1 C 3,3 C 92 % 1011,8 hPa 0,0 l/m 0 min 0 min 0 W/m 12,9 km/h (3 Bft) 97,87 %
24.11.2022 23:56 6,9 C 6,1 C 3,3 C 92 % 1011,8 hPa 0,0 l/m 0 min 0 min 0 W/m 16,1 km/h (3 Bft) 97,83 %
24.11.2022 23:58 6,9 C 6,1 C 3,3 C 92 % 1011,8 hPa 0,0 l/m 0 min 0 min 0 W/m 16,1 km/h (3 Bft) 93,62 %
_ Min-Zeit 21:40 20:26 20:20 15:06 00:00 - - - - 16:38 06:32
Minimum _ 6,2 C 5,6 C 2,8 C 79 % 1004,1 hPa - - - - 0,0 km/h (0 Bft) 16,67 %
_ Max-Zeit 14:46 13:02 13:32 00:00 19:16 00:00 10:20 04:36 13:14 05:16 00:38
Maximum _ 11,8 C 14,4 C 7,2 C 97 % 1012,8 hPa 0,0 l/m 2 min 2 min 294 W/m 41,8 km/h
S-SW (6 Bft)
100,00 %
Durchschnitt _ 8,7 C 8,2 C 4,6 C 89 % 1009,6 hPa #0,0 l/m #2:20 h #18 min. 92 W/m 14,3 km/h (3 Bft) 96,86 %
© 2022 W. Hausmann